Wetterdaten: Freitag, 05.06.2015
Datum Zeit Temp. Aussen +5cm Feuchte Auss BlattFeu 1 Luftdruck Regen Sonnenschein Regendauer Solar Windben
05.06.2015 00:00 17,7 C 13,9 C 67 % 0 lf 1021,5 hPa 0,0 l/m 0 min 0 min 0 W/m 8,2 km/h (2 Bft)
05.06.2015 00:02 17,7 C 13,9 C 67 % 0 lf 1021,5 hPa 0,0 l/m 0 min 0 min 0 W/m 5,5 km/h (1 Bft)
05.06.2015 00:05 17,6 C 13,9 C 67 % 0 lf 1021,5 hPa 0,0 l/m 0 min 0 min 0 W/m 5,5 km/h (1 Bft)
05.06.2015 00:06 17,6 C 13,9 C 67 % 0 lf 1021,5 hPa 0,0 l/m 0 min 0 min 0 W/m 2,7 km/h (1 Bft)
05.06.2015 00:08 17,6 C 13,9 C 67 % 0 lf 1021,4 hPa 0,0 l/m 0 min 0 min 0 W/m 2,7 km/h (1 Bft)
05.06.2015 00:10 17,5 C 13,9 C 68 % 0 lf 1021,4 hPa 0,0 l/m 0 min 0 min 0 W/m 2,7 km/h (1 Bft)
05.06.2015 00:12 17,5 C 13,9 C 68 % 0 lf 1021,4 hPa 0,0 l/m 0 min 0 min 0 W/m 2,7 km/h (1 Bft)
05.06.2015 00:14 17,4 C 13,3 C 68 % 0 lf 1021,4 hPa 0,0 l/m 0 min 0 min 0 W/m 2,7 km/h (1 Bft)
05.06.2015 00:16 17,4 C 13,3 C 68 % 0 lf 1021,4 hPa 0,0 l/m 0 min 0 min 0 W/m 2,7 km/h (1 Bft)
05.06.2015 00:18 17,3 C 13,3 C 68 % 0 lf 1021,4 hPa 0,0 l/m 0 min 0 min 0 W/m 2,7 km/h (1 Bft)
05.06.2015 00:20 17,3 C 13,3 C 68 % 0 lf 1021,4 hPa 0,0 l/m 0 min 0 min 0 W/m 2,7 km/h (1 Bft)
05.06.2015 00:22 17,2 C 13,3 C 68 % 0 lf 1021,4 hPa 0,0 l/m 0 min 0 min 0 W/m 2,7 km/h (1 Bft)
05.06.2015 00:24 17,2 C 13,3 C 69 % 0 lf 1021,4 hPa 0,0 l/m 0 min 0 min 0 W/m 2,7 km/h (1 Bft)
05.06.2015 00:26 17,1 C 13,3 C 69 % 0 lf 1021,4 hPa 0,0 l/m 0 min 0 min 0 W/m 2,7 km/h (1 Bft)
05.06.2015 00:28 17,1 C 13,3 C 69 % 0 lf 1021,4 hPa 0,0 l/m 0 min 0 min 0 W/m 2,7 km/h (1 Bft)
05.06.2015 00:30 17,0 C 13,3 C 69 % 0 lf 1021,3 hPa 0,0 l/m 0 min 0 min 0 W/m 2,7 km/h (1 Bft)
05.06.2015 00:32 16,9 C 12,8 C 70 % 0 lf 1021,3 hPa 0,0 l/m 0 min 0 min 0 W/m 2,7 km/h (1 Bft)
05.06.2015 00:34 16,9 C 12,8 C 70 % 0 lf 1021,3 hPa 0,0 l/m 0 min 0 min 0 W/m 2,7 km/h (1 Bft)
05.06.2015 00:36 16,8 C 12,8 C 70 % 0 lf 1021,3 hPa 0,0 l/m 0 min 0 min 0 W/m 2,7 km/h (1 Bft)
05.06.2015 00:38 16,8 C 12,8 C 70 % 0 lf 1021,3 hPa 0,0 l/m 0 min 0 min 0 W/m 2,7 km/h (1 Bft)
05.06.2015 00:40 16,7 C 12,8 C 71 % 0 lf 1021,2 hPa 0,0 l/m 0 min 0 min 0 W/m 2,7 km/h (1 Bft)
05.06.2015 00:42 16,6 C 12,8 C 71 % 0 lf 1021,2 hPa 0,0 l/m 0 min 0 min 0 W/m 2,7 km/h (1 Bft)
05.06.2015 00:44 16,6 C 12,8 C 71 % 0 lf 1021,3 hPa 0,0 l/m 0 min 0 min 0 W/m 2,7 km/h (1 Bft)
05.06.2015 00:46 16,5 C 12,8 C 71 % 0 lf 1021,3 hPa 0,0 l/m 0 min 0 min 0 W/m 2,7 km/h (1 Bft)
05.06.2015 00:48 16,4 C 12,8 C 71 % 0 lf 1021,3 hPa 0,0 l/m 0 min 0 min 0 W/m 2,7 km/h (1 Bft)
05.06.2015 00:50 16,3 C 12,8 C 71 % 0 lf 1021,3 hPa 0,0 l/m 0 min 0 min 0 W/m 2,7 km/h (1 Bft)
05.06.2015 00:52 16,3 C 12,8 C 72 % 0 lf 1021,2 hPa 0,0 l/m 0 min 0 min 0 W/m 2,7 km/h (1 Bft)
05.06.2015 00:54 16,2 C 12,8 C 72 % 0 lf 1021,3 hPa 0,0 l/m 0 min 0 min 0 W/m 2,7 km/h (1 Bft)
05.06.2015 00:56 16,2 C 12,2 C 72 % 0 lf 1021,3 hPa 0,0 l/m 0 min 0 min 0 W/m 2,7 km/h (1 Bft)
05.06.2015 00:58 16,1 C 12,2 C 72 % 0 lf 1021,3 hPa 0,0 l/m 0 min 0 min 0 W/m 2,7 km/h (1 Bft)
05.06.2015 01:00 16,1 C 12,2 C 72 % 0 lf 1021,3 hPa 0,0 l/m 0 min 0 min 0 W/m 2,7 km/h (1 Bft)
05.06.2015 01:02 16,0 C 12,2 C 72 % 0 lf 1021,3 hPa 0,0 l/m 0 min 0 min 0 W/m 2,7 km/h (1 Bft)
05.06.2015 01:04 15,9 C 12,2 C 73 % 0 lf 1021,2 hPa 0,0 l/m 0 min 0 min 0 W/m 2,7 km/h (1 Bft)
05.06.2015 01:06 15,8 C 12,2 C 73 % 0 lf 1021,2 hPa 0,0 l/m 0 min 0 min 0 W/m 2,7 km/h (1 Bft)
05.06.2015 01:08 15,8 C 12,2 C 73 % 0 lf 1021,3 hPa 0,0 l/m 0 min 0 min 0 W/m 5,5 km/h (1 Bft)
05.06.2015 01:10 15,7 C 12,2 C 73 % 0 lf 1021,2 hPa 0,0 l/m 0 min 0 min 0 W/m 5,5 km/h (1 Bft)
05.06.2015 01:12 15,7 C 12,2 C 73 % 0 lf 1021,3 hPa 0,0 l/m 0 min 0 min 0 W/m 5,5 km/h (1 Bft)
05.06.2015 01:14 15,6 C 12,2 C 73 % 0 lf 1021,3 hPa 0,0 l/m 0 min 0 min 0 W/m 2,7 km/h (1 Bft)
05.06.2015 01:16 15,6 C 12,2 C 74 % 0 lf 1021,2 hPa 0,0 l/m 0 min 0 min 0 W/m 2,7 km/h (1 Bft)
05.06.2015 01:18 15,5 C 12,2 C 74 % 0 lf 1021,2 hPa 0,0 l/m 0 min 0 min 0 W/m 2,7 km/h (1 Bft)
05.06.2015 01:20 15,4 C 12,2 C 74 % 0 lf 1021,2 hPa 0,0 l/m 0 min 0 min 0 W/m 2,7 km/h (1 Bft)
05.06.2015 01:22 15,4 C 12,2 C 75 % 0 lf 1021,2 hPa 0,0 l/m 0 min 0 min 0 W/m 2,7 km/h (1 Bft)
05.06.2015 01:24 15,3 C 12,2 C 75 % 0 lf 1021,2 hPa 0,0 l/m 0 min 0 min 0 W/m 5,5 km/h (1 Bft)
05.06.2015 01:26 15,3 C 12,2 C 75 % 0 lf 1021,2 hPa 0,0 l/m 0 min 0 min 0 W/m 5,5 km/h (1 Bft)
05.06.2015 01:28 15,2 C 12,2 C 75 % 0 lf 1021,2 hPa 0,0 l/m 0 min 0 min 0 W/m 5,5 km/h (1 Bft)
05.06.2015 01:30 15,2 C 11,7 C 76 % 0 lf 1021,2 hPa 0,0 l/m 0 min 0 min 0 W/m 5,5 km/h (1 Bft)
05.06.2015 01:32 15,1 C 11,7 C 76 % 0 lf 1021,1 hPa 0,0 l/m 0 min 0 min 0 W/m 5,5 km/h (1 Bft)
05.06.2015 01:34 15,1 C 11,7 C 76 % 0 lf 1021,1 hPa 0,0 l/m 0 min 0 min 0 W/m 5,5 km/h (1 Bft)
05.06.2015 01:36 15,0 C 11,7 C 76 % 0 lf 1021,1 hPa 0,0 l/m 0 min 0 min 0 W/m 5,5 km/h (1 Bft)
05.06.2015 01:38 15,0 C 11,7 C 76 % 0 lf 1021,1 hPa 0,0 l/m 0 min 0 min 0 W/m 5,5 km/h (1 Bft)
05.06.2015 01:40 14,9 C 11,7 C 76 % 0 lf 1021,1 hPa 0,0 l/m 0 min 0 min 0 W/m 5,5 km/h (1 Bft)
05.06.2015 01:42 14,9 C 11,7 C 76 % 0 lf 1021,1 hPa 0,0 l/m 0 min 0 min 0 W/m 5,5 km/h (1 Bft)
05.06.2015 01:44 14,8 C 11,7 C 77 % 0 lf 1021,1 hPa 0,0 l/m 0 min 0 min 0 W/m 8,2 km/h (2 Bft)
05.06.2015 01:46 14,8 C 11,7 C 77 % 0 lf 1021,1 hPa 0,0 l/m 0 min 0 min 0 W/m 8,2 km/h (2 Bft)
05.06.2015 01:48 14,7 C 11,7 C 77 % 0 lf 1021,0 hPa 0,0 l/m 0 min 0 min 0 W/m 10,9 km/h (2 Bft)
05.06.2015 01:50 14,7 C 11,7 C 77 % 0 lf 1021,1 hPa 0,0 l/m 0 min 0 min 0 W/m 8,2 km/h (2 Bft)
05.06.2015 01:52 14,7 C 11,7 C 77 % 0 lf 1021,1 hPa 0,0 l/m 0 min 0 min 0 W/m 10,9 km/h (2 Bft)
05.06.2015 01:54 14,6 C 11,7 C 78 % 0 lf 1021,0 hPa 0,0 l/m 0 min 0 min 0 W/m 8,2 km/h (2 Bft)
05.06.2015 01:56 14,6 C 11,7 C 78 % 0 lf 1021,1 hPa 0,0 l/m 0 min 0 min 0 W/m 8,2 km/h (2 Bft)
05.06.2015 01:58 14,5 C 11,7 C 78 % 0 lf 1021,0 hPa 0,0 l/m 0 min 0 min 0 W/m 8,2 km/h (2 Bft)
05.06.2015 02:00 14,5 C 11,7 C 78 % 0 lf 1021,0 hPa 0,0 l/m 0 min 0 min 0 W/m 8,2 km/h (2 Bft)
05.06.2015 02:02 14,5 C 11,7 C 78 % 0 lf 1021,0 hPa 0,0 l/m 0 min 0 min 0 W/m 8,2 km/h (2 Bft)
05.06.2015 02:04 14,4 C 11,7 C 78 % 0 lf 1021,0 hPa 0,0 l/m 0 min 0 min 0 W/m 5,5 km/h (1 Bft)
05.06.2015 02:06 14,4 C 11,7 C 79 % 0 lf 1021,0 hPa 0,0 l/m 0 min 0 min 0 W/m 5,5 km/h (1 Bft)
05.06.2015 02:08 14,3 C 11,7 C 79 % 0 lf 1021,0 hPa 0,0 l/m 0 min 0 min 0 W/m 2,7 km/h (1 Bft)
05.06.2015 02:10 14,3 C 11,7 C 78 % 0 lf 1020,9 hPa 0,0 l/m 0 min 0 min 0 W/m 5,5 km/h (1 Bft)
05.06.2015 02:12 14,3 C 11,7 C 79 % 0 lf 1020,9 hPa 0,0 l/m 0 min 0 min 0 W/m 5,5 km/h (1 Bft)
05.06.2015 02:14 14,2 C 11,7 C 79 % 0 lf 1021,0 hPa 0,0 l/m 0 min 0 min 0 W/m 5,5 km/h (1 Bft)
05.06.2015 02:16 14,2 C 11,7 C 79 % 0 lf 1020,9 hPa 0,0 l/m 0 min 0 min 0 W/m 5,5 km/h (1 Bft)
05.06.2015 02:18 14,2 C 11,7 C 79 % 0 lf 1020,9 hPa 0,0 l/m 0 min 0 min 0 W/m 5,5 km/h (1 Bft)
05.06.2015 02:20 14,2 C 11,7 C 79 % 0 lf 1020,9 hPa 0,0 l/m 0 min 0 min 0 W/m 8,2 km/h (2 Bft)
05.06.2015 02:22 14,2 C 11,7 C 79 % 0 lf 1020,8 hPa 0,0 l/m 0 min 0 min 0 W/m 8,2 km/h (2 Bft)
05.06.2015 02:24 14,2 C 11,7 C 79 % 0 lf 1020,8 hPa 0,0 l/m 0 min 0 min 0 W/m 10,9 km/h (2 Bft)
05.06.2015 02:26 14,2 C 11,7 C 79 % 0 lf 1020,8 hPa 0,0 l/m 0 min 0 min 0 W/m 10,9 km/h (2 Bft)
05.06.2015 02:28 14,2 C 11,7 C 80 % 0 lf 1020,8 hPa 0,0 l/m 0 min 0 min 0 W/m 10,9 km/h (2 Bft)
05.06.2015 02:30 14,2 C 11,7 C 80 % 0 lf 1020,8 hPa 0,0 l/m 0 min 0 min 0 W/m 8,2 km/h (2 Bft)
05.06.2015 02:32 14,2 C 11,7 C 80 % 0 lf 1020,8 hPa 0,0 l/m 0 min 0 min 0 W/m 10,9 km/h (2 Bft)
05.06.2015 02:34 14,2 C 11,7 C 80 % 0 lf 1020,7 hPa 0,0 l/m 0 min 0 min 0 W/m 13,6 km/h (3 Bft)
05.06.2015 02:36 14,1 C 11,7 C 80 % 0 lf 1020,8 hPa 0,0 l/m 0 min 0 min 0 W/m 5,5 km/h (1 Bft)
05.06.2015 02:38 14,1 C 11,7 C 80 % 0 lf 1020,8 hPa 0,0 l/m 0 min 0 min 0 W/m 8,2 km/h (2 Bft)
05.06.2015 02:40 14,1 C 11,7 C 80 % 0 lf 1020,8 hPa 0,0 l/m 0 min 0 min 0 W/m 8,2 km/h (2 Bft)
05.06.2015 02:42 14,1 C 11,7 C 80 % 0 lf 1020,7 hPa 0,0 l/m 0 min 0 min 0 W/m 8,2 km/h (2 Bft)
05.06.2015 02:44 14,1 C 11,7 C 81 % 0 lf 1020,6 hPa 0,0 l/m 0 min 0 min 0 W/m 8,2 km/h (2 Bft)
05.06.2015 02:46 14,0 C 12,2 C 81 % 0 lf 1020,7 hPa 0,0 l/m 0 min 0 min 0 W/m 13,6 km/h (3 Bft)
05.06.2015 02:48 14,0 C 12,2 C 81 % 0 lf 1020,6 hPa 0,0 l/m 0 min 0 min 0 W/m 10,9 km/h (2 Bft)
05.06.2015 02:50 14,0 C 12,2 C 81 % 0 lf 1020,5 hPa 0,0 l/m 0 min 0 min 0 W/m 10,9 km/h (2 Bft)
05.06.2015 02:52 14,0 C 12,2 C 81 % 0 lf 1020,6 hPa 0,0 l/m 0 min 0 min 0 W/m 10,9 km/h (2 Bft)
05.06.2015 02:54 14,0 C 12,2 C 81 % 0 lf 1020,5 hPa 0,0 l/m 0 min 0 min 0 W/m 10,9 km/h (2 Bft)
05.06.2015 02:56 14,1 C 12,2 C 81 % 0 lf 1020,5 hPa 0,0 l/m 0 min 0 min 0 W/m 10,9 km/h (2 Bft)
05.06.2015 02:58 14,1 C 12,2 C 81 % 0 lf 1020,5 hPa 0,0 l/m 0 min 0 min 0 W/m 13,6 km/h (3 Bft)
05.06.2015 03:00 14,1 C 12,2 C 81 % 0 lf 1020,5 hPa 0,0 l/m 0 min 0 min 0 W/m 10,9 km/h (2 Bft)
05.06.2015 03:02 14,1 C 12,8 C 81 % 0 lf 1020,4 hPa 0,0 l/m 0 min 0 min 0 W/m 10,9 km/h (2 Bft)
05.06.2015 03:04 14,1 C 12,8 C 81 % 0 lf 1020,4 hPa 0,0 l/m 0 min 0 min 0 W/m 13,6 km/h (3 Bft)
05.06.2015 03:06 14,1 C 12,8 C 81 % 0 lf 1020,5 hPa 0,0 l/m 0 min 0 min 0 W/m 13,6 km/h (3 Bft)
05.06.2015 03:08 14,1 C 12,8 C 81 % 0 lf 1020,5 hPa 0,0 l/m 0 min 0 min 0 W/m 10,9 km/h (2 Bft)
05.06.2015 03:10 14,2 C 12,8 C 81 % 0 lf 1020,4 hPa 0,0 l/m 0 min 0 min 0 W/m 13,6 km/h (3 Bft)
05.06.2015 03:12 14,2 C 12,8 C 81 % 0 lf 1020,4 hPa 0,0 l/m 0 min 0 min 0 W/m 10,9 km/h (2 Bft)
05.06.2015 03:14 14,2 C 12,8 C 81 % 0 lf 1020,4 hPa 0,0 l/m 0 min 0 min 0 W/m 13,6 km/h (3 Bft)
05.06.2015 03:16 14,2 C 12,8 C 81 % 0 lf 1020,4 hPa 0,0 l/m 0 min 0 min 0 W/m 10,9 km/h (2 Bft)
05.06.2015 03:18 14,2 C 12,8 C 81 % 0 lf 1020,4 hPa 0,0 l/m 0 min 0 min 0 W/m 10,9 km/h (2 Bft)
05.06.2015 03:20 14,2 C 12,8 C 81 % 0 lf 1020,4 hPa 0,0 l/m 0 min 0 min 0 W/m 8,2 km/h (2 Bft)
05.06.2015 03:22 14,2 C 12,8 C 80 % 0 lf 1020,4 hPa 0,0 l/m 0 min 0 min 0 W/m 10,9 km/h (2 Bft)
05.06.2015 03:24 14,2 C 12,8 C 80 % 0 lf 1020,4 hPa 0,0 l/m 0 min 0 min 0 W/m 10,9 km/h (2 Bft)
05.06.2015 03:26 14,2 C 12,8 C 80 % 0 lf 1020,5 hPa 0,0 l/m 0 min 0 min 0 W/m 8,2 km/h (2 Bft)
05.06.2015 03:28 14,2 C 12,8 C 80 % 0 lf 1020,4 hPa 0,0 l/m 0 min 0 min 0 W/m 8,2 km/h (2 Bft)
05.06.2015 03:30 14,2 C 12,8 C 80 % 0 lf 1020,4 hPa 0,0 l/m 0 min 0 min 0 W/m 10,9 km/h (2 Bft)
05.06.2015 03:32 14,2 C 12,8 C 80 % 0 lf 1020,4 hPa 0,0 l/m 0 min 0 min 0 W/m 8,2 km/h (2 Bft)
05.06.2015 03:34 14,2 C 12,8 C 80 % 0 lf 1020,4 hPa 0,0 l/m 0 min 0 min 0 W/m 10,9 km/h (2 Bft)
05.06.2015 03:36 14,2 C 12,2 C 80 % 0 lf 1020,4 hPa 0,0 l/m 0 min 0 min 0 W/m 10,9 km/h (2 Bft)
05.06.2015 03:38 14,2 C 12,2 C 80 % 0 lf 1020,3 hPa 0,0 l/m 0 min 0 min 0 W/m 13,6 km/h (3 Bft)
05.06.2015 03:40 14,2 C 12,2 C 80 % 0 lf 1020,3 hPa 0,0 l/m 0 min 0 min 0 W/m 10,9 km/h (2 Bft)
05.06.2015 03:42 14,2 C 12,2 C 80 % 0 lf 1020,3 hPa 0,0 l/m 0 min 0 min 0 W/m 10,9 km/h (2 Bft)
05.06.2015 03:44 14,2 C 12,2 C 80 % 0 lf 1020,3 hPa 0,0 l/m 0 min 0 min 0 W/m 13,6 km/h (3 Bft)
05.06.2015 03:46 14,2 C 12,2 C 80 % 0 lf 1020,3 hPa 0,0 l/m 0 min 0 min 0 W/m 13,6 km/h (3 Bft)
05.06.2015 03:48 14,2 C 12,2 C 80 % 0 lf 1020,3 hPa 0,0 l/m 0 min 0 min 0 W/m 13,6 km/h (3 Bft)
05.06.2015 03:50 14,2 C 12,2 C 80 % 0 lf 1020,3 hPa 0,0 l/m 0 min 0 min 0 W/m 13,6 km/h (3 Bft)
05.06.2015 03:52 14,2 C 12,2 C 80 % 0 lf 1020,2 hPa 0,0 l/m 0 min 0 min 0 W/m 10,9 km/h (2 Bft)
05.06.2015 03:54 14,2 C 12,2 C 80 % 0 lf 1020,2 hPa 0,0 l/m 0 min 0 min 0 W/m 13,6 km/h (3 Bft)
05.06.2015 03:56 14,2 C 12,2 C 80 % 0 lf 1020,2 hPa 0,0 l/m 0 min 0 min 0 W/m 10,9 km/h (2 Bft)
05.06.2015 03:58 14,2 C 12,2 C 80 % 0 lf 1020,2 hPa 0,0 l/m 0 min 0 min 0 W/m 10,9 km/h (2 Bft)
05.06.2015 04:00 14,2 C 12,2 C 80 % 0 lf 1020,2 hPa 0,0 l/m 0 min 0 min 0 W/m 10,9 km/h (2 Bft)
05.06.2015 04:02 14,2 C 12,2 C 80 % 0 lf 1020,2 hPa 0,0 l/m 0 min 0 min 0 W/m 13,6 km/h (3 Bft)
05.06.2015 04:04 14,2 C 12,2 C 80 % 0 lf 1020,2 hPa 0,0 l/m 0 min 0 min 0 W/m 10,9 km/h (2 Bft)
05.06.2015 04:06 14,2 C 12,2 C 80 % 0 lf 1020,2 hPa 0,0 l/m 0 min 0 min 0 W/m 10,9 km/h (2 Bft)
05.06.2015 04:08 14,2 C 12,2 C 80 % 0 lf 1020,2 hPa 0,0 l/m 0 min 0 min 0 W/m 13,6 km/h (3 Bft)
05.06.2015 04:10 14,2 C 12,2 C 80 % 0 lf 1020,2 hPa 0,0 l/m 0 min 0 min 0 W/m 13,6 km/h (3 Bft)
05.06.2015 04:12 14,1 C 12,2 C 80 % 0 lf 1020,1 hPa 0,0 l/m 0 min 0 min 0 W/m 10,9 km/h (2 Bft)
05.06.2015 04:14 14,1 C 12,2 C 80 % 0 lf 1020,1 hPa 0,0 l/m 0 min 0 min 0 W/m 10,9 km/h (2 Bft)
05.06.2015 04:16 14,1 C 12,2 C 80 % 0 lf 1020,1 hPa 0,0 l/m 0 min 0 min 0 W/m 10,9 km/h (2 Bft)
05.06.2015 04:18 14,1 C 12,2 C 80 % 0 lf 1020,1 hPa 0,0 l/m 0 min 0 min 0 W/m 10,9 km/h (2 Bft)
05.06.2015 04:20 14,1 C 12,2 C 80 % 0 lf 1020,0 hPa 0,0 l/m 0 min 0 min 0 W/m 10,9 km/h (2 Bft)
05.06.2015 04:22 14,1 C 12,2 C 80 % 0 lf 1020,0 hPa 0,0 l/m 0 min 0 min 0 W/m 10,9 km/h (2 Bft)
05.06.2015 04:24 14,1 C 12,2 C 80 % 0 lf 1020,0 hPa 0,0 l/m 0 min 0 min 0 W/m 13,6 km/h (3 Bft)
05.06.2015 04:26 14,1 C 12,2 C 80 % 0 lf 1020,0 hPa 0,0 l/m 0 min 0 min 0 W/m 13,6 km/h (3 Bft)
05.06.2015 04:28 14,0 C 12,2 C 80 % 0 lf 1019,9 hPa 0,0 l/m 0 min 0 min 0 W/m 13,6 km/h (3 Bft)
05.06.2015 04:30 14,0 C 12,2 C 80 % 0 lf 1019,9 hPa 0,0 l/m 0 min 0 min 0 W/m 10,9 km/h (2 Bft)
05.06.2015 04:32 14,0 C 12,2 C 80 % 0 lf 1019,9 hPa 0,0 l/m 0 min 0 min 0 W/m 13,6 km/h (3 Bft)
05.06.2015 04:34 14,0 C 12,2 C 80 % 0 lf 1019,9 hPa 0,0 l/m 0 min 0 min 0 W/m 13,6 km/h (3 Bft)
05.06.2015 04:36 14,0 C 12,2 C 80 % 0 lf 1019,8 hPa 0,0 l/m 0 min 0 min 0 W/m 10,9 km/h (2 Bft)
05.06.2015 04:38 14,0 C 12,2 C 80 % 0 lf 1019,8 hPa 0,0 l/m 0 min 0 min 0 W/m 10,9 km/h (2 Bft)
05.06.2015 04:40 14,0 C 12,2 C 80 % 0 lf 1019,8 hPa 0,0 l/m 0 min 0 min 0 W/m 13,6 km/h (3 Bft)
05.06.2015 04:42 13,9 C 12,2 C 80 % 0 lf 1019,8 hPa 0,0 l/m 0 min 0 min 0 W/m 16,4 km/h (3 Bft)
05.06.2015 04:44 13,9 C 12,2 C 80 % 0 lf 1019,8 hPa 0,0 l/m 0 min 0 min 0 W/m 10,9 km/h (2 Bft)
05.06.2015 04:46 13,9 C 12,2 C 80 % 0 lf 1019,7 hPa 0,0 l/m 0 min 0 min 0 W/m 13,6 km/h (3 Bft)
05.06.2015 04:48 13,9 C 12,2 C 80 % 0 lf 1019,7 hPa 0,0 l/m 0 min 0 min 0 W/m 10,9 km/h (2 Bft)
05.06.2015 04:50 13,9 C 12,2 C 80 % 0 lf 1019,7 hPa 0,0 l/m 0 min 0 min 0 W/m 13,6 km/h (3 Bft)
05.06.2015 04:52 13,9 C 12,2 C 80 % 0 lf 1019,7 hPa 0,0 l/m 0 min 0 min 0 W/m 10,9 km/h (2 Bft)
05.06.2015 04:54 13,9 C 12,2 C 80 % 0 lf 1019,7 hPa 0,0 l/m 0 min 0 min 0 W/m 10,9 km/h (2 Bft)
05.06.2015 04:56 13,9 C 12,2 C 80 % 0 lf 1019,7 hPa 0,0 l/m 0 min 0 min 0 W/m 10,9 km/h (2 Bft)
05.06.2015 04:58 13,9 C 12,2 C 80 % 0 lf 1019,6 hPa 0,0 l/m 0 min 0 min 0 W/m 16,4 km/h (3 Bft)
05.06.2015 05:00 13,9 C 12,2 C 80 % 0 lf 1019,7 hPa 0,0 l/m 0 min 0 min 0 W/m 13,6 km/h (3 Bft)
05.06.2015 05:02 13,9 C 12,2 C 80 % 0 lf 1019,6 hPa 0,0 l/m 0 min 0 min 0 W/m 16,4 km/h (3 Bft)
05.06.2015 05:04 13,9 C 12,2 C 80 % 0 lf 1019,6 hPa 0,0 l/m 0 min 0 min 0 W/m 16,4 km/h (3 Bft)
05.06.2015 05:06 13,9 C 12,2 C 80 % 0 lf 1019,6 hPa 0,0 l/m 0 min 0 min 0 W/m 10,9 km/h (2 Bft)
05.06.2015 05:08 13,9 C 12,2 C 80 % 0 lf 1019,6 hPa 0,0 l/m 0 min 0 min 0 W/m 13,6 km/h (3 Bft)
05.06.2015 05:10 13,9 C 12,2 C 80 % 0 lf 1019,6 hPa 0,0 l/m 0 min 0 min 0 W/m 10,9 km/h (2 Bft)
05.06.2015 05:12 13,9 C 12,2 C 80 % 0 lf 1019,6 hPa 0,0 l/m 0 min 0 min 0 W/m 10,9 km/h (2 Bft)
05.06.2015 05:14 13,8 C 12,2 C 80 % 0 lf 1019,5 hPa 0,0 l/m 0 min 0 min 0 W/m 13,6 km/h (3 Bft)
05.06.2015 05:16 13,8 C 12,2 C 80 % 0 lf 1019,6 hPa 0,0 l/m 0 min 0 min 0 W/m 13,6 km/h (3 Bft)
05.06.2015 05:18 13,8 C 12,2 C 80 % 0 lf 1019,5 hPa 0,0 l/m 0 min 0 min 0 W/m 13,6 km/h (3 Bft)
05.06.2015 05:20 13,8 C 12,2 C 81 % 0 lf 1019,5 hPa 0,0 l/m 0 min 0 min 0 W/m 13,6 km/h (3 Bft)
05.06.2015 05:22 13,8 C 12,2 C 81 % 0 lf 1019,5 hPa 0,0 l/m 0 min 0 min 0 W/m 13,6 km/h (3 Bft)
05.06.2015 05:24 13,8 C 12,2 C 81 % 0 lf 1019,5 hPa 0,0 l/m 0 min 0 min 0 W/m 10,9 km/h (2 Bft)
05.06.2015 05:26 13,8 C 12,2 C 81 % 0 lf 1019,4 hPa 0,0 l/m 0 min 0 min 0 W/m 13,6 km/h (3 Bft)
05.06.2015 05:28 13,8 C 12,2 C 81 % 0 lf 1019,4 hPa 0,0 l/m 0 min 0 min 0 W/m 13,6 km/h (3 Bft)
05.06.2015 05:30 13,8 C 12,2 C 81 % 0 lf 1019,4 hPa 0,0 l/m 0 min 0 min 11 W/m 13,6 km/h (3 Bft)
05.06.2015 05:32 13,8 C 12,2 C 81 % 0 lf 1019,4 hPa 0,0 l/m 0 min 0 min 12 W/m 13,6 km/h (3 Bft)
05.06.2015 05:34 13,8 C 12,2 C 81 % 0 lf 1019,4 hPa 0,0 l/m 0 min 0 min 12 W/m 19,0 km/h (3 Bft)
05.06.2015 05:36 13,8 C 12,2 C 81 % 0 lf 1019,5 hPa 0,0 l/m 0 min 0 min 14 W/m 19,0 km/h (3 Bft)
05.06.2015 05:38 13,8 C 12,2 C 81 % 0 lf 1019,5 hPa 0,0 l/m 0 min 0 min 15 W/m 16,4 km/h (3 Bft)
05.06.2015 05:40 13,8 C 12,2 C 81 % 0 lf 1019,4 hPa 0,0 l/m 0 min 0 min 17 W/m 16,4 km/h (3 Bft)
05.06.2015 05:42 13,8 C 12,2 C 81 % 0 lf 1019,4 hPa 0,0 l/m 0 min 0 min 18 W/m 16,4 km/h (3 Bft)
05.06.2015 05:44 13,8 C 12,2 C 81 % 0 lf 1019,4 hPa 0,0 l/m 2 min 0 min 19 W/m 13,6 km/h (3 Bft)
05.06.2015 05:46 13,8 C 12,8 C 81 % 0 lf 1019,4 hPa 0,0 l/m 2 min 0 min 21 W/m 16,4 km/h (3 Bft)
05.06.2015 05:48 13,8 C 12,8 C 81 % 0 lf 1019,4 hPa 0,0 l/m 2 min 0 min 23 W/m 16,4 km/h (3 Bft)
05.06.2015 05:50 13,8 C 12,8 C 81 % 0 lf 1019,4 hPa 0,0 l/m 2 min 0 min 25 W/m 16,4 km/h (3 Bft)
05.06.2015 05:52 13,8 C 12,8 C 81 % 0 lf 1019,4 hPa 0,0 l/m 2 min 0 min 27 W/m 13,6 km/h (3 Bft)
05.06.2015 05:54 13,9 C 12,8 C 81 % 0 lf 1019,4 hPa 0,0 l/m 2 min 0 min 29 W/m 19,0 km/h (3 Bft)
05.06.2015 05:56 13,9 C 12,8 C 81 % 0 lf 1019,4 hPa 0,0 l/m 2 min 0 min 31 W/m 13,6 km/h (3 Bft)
05.06.2015 05:58 13,9 C 12,8 C 81 % 0 lf 1019,3 hPa 0,0 l/m 2 min 0 min 33 W/m 10,9 km/h (2 Bft)
05.06.2015 06:00 13,9 C 12,8 C 81 % 0 lf 1019,4 hPa 0,0 l/m 2 min 0 min 36 W/m 13,6 km/h (3 Bft)
05.06.2015 06:02 14,0 C 12,8 C 81 % 0 lf 1019,4 hPa 0,0 l/m 2 min 0 min 38 W/m 10,9 km/h (2 Bft)
05.06.2015 06:06 14,1 C 12,8 C 81 % 0 lf 1019,4 hPa 0,0 l/m 2 min 0 min 42 W/m 13,6 km/h (3 Bft)
05.06.2015 06:08 14,1 C 12,8 C 81 % 0 lf 1019,5 hPa 0,0 l/m 2 min 0 min 47 W/m 8,2 km/h (2 Bft)
05.06.2015 06:10 14,2 C 12,8 C 81 % 0 lf 1019,5 hPa 0,0 l/m 2 min 0 min 49 W/m 13,6 km/h (3 Bft)
05.06.2015 06:12 14,2 C 12,8 C 81 % 0 lf 1019,5 hPa 0,0 l/m 2 min 0 min 53 W/m 13,6 km/h (3 Bft)
05.06.2015 06:14 14,2 C 12,8 C 81 % 0 lf 1019,5 hPa 0,0 l/m 2 min 0 min 56 W/m 13,6 km/h (3 Bft)
05.06.2015 06:16 14,2 C 12,8 C 81 % 0 lf 1019,5 hPa 0,0 l/m 2 min 0 min 59 W/m 13,6 km/h (3 Bft)
05.06.2015 06:18 14,2 C 12,8 C 81 % 0 lf 1019,5 hPa 0,0 l/m 2 min 0 min 62 W/m 13,6 km/h (3 Bft)
05.06.2015 06:20 14,2 C 12,8 C 81 % 0 lf 1019,5 hPa 0,0 l/m 2 min 0 min 67 W/m 16,4 km/h (3 Bft)
05.06.2015 06:22 14,2 C 12,8 C 81 % 0 lf 1019,5 hPa 0,0 l/m 2 min 0 min 70 W/m 10,9 km/h (2 Bft)
05.06.2015 06:24 14,2 C 12,8 C 81 % 0 lf 1019,5 hPa 0,0 l/m 2 min 0 min 73 W/m 13,6 km/h (3 Bft)
05.06.2015 06:26 14,2 C 12,8 C 81 % 0 lf 1019,4 hPa 0,0 l/m 2 min 0 min 77 W/m 13,6 km/h (3 Bft)
05.06.2015 06:28 14,2 C 12,8 C 81 % 0 lf 1019,5 hPa 0,0 l/m 2 min 0 min 81 W/m 19,0 km/h (3 Bft)
05.06.2015 06:30 14,2 C 13,3 C 81 % 0 lf 1019,5 hPa 0,0 l/m 2 min 0 min 86 W/m 21,7 km/h (4 Bft)
05.06.2015 06:32 14,2 C 13,3 C 81 % 0 lf 1019,4 hPa 0,0 l/m 2 min 0 min 91 W/m 19,0 km/h (3 Bft)
05.06.2015 06:34 14,2 C 13,3 C 81 % 0 lf 1019,4 hPa 0,0 l/m 2 min 0 min 95 W/m 10,9 km/h (2 Bft)
05.06.2015 06:36 14,2 C 13,3 C 81 % 0 lf 1019,4 hPa 0,0 l/m 2 min 0 min 99 W/m 19,0 km/h (3 Bft)
05.06.2015 06:38 14,3 C 13,3 C 81 % 0 lf 1019,4 hPa 0,0 l/m 2 min 0 min 104 W/m 13,6 km/h (3 Bft)
05.06.2015 06:40 14,3 C 13,3 C 81 % 0 lf 1019,3 hPa 0,0 l/m 2 min 0 min 109 W/m 21,7 km/h (4 Bft)
05.06.2015 06:42 14,4 C 13,3 C 81 % 0 lf 1019,4 hPa 0,0 l/m 2 min 0 min 114 W/m 21,7 km/h (4 Bft)
05.06.2015 06:44 14,4 C 13,3 C 81 % 0 lf 1019,4 hPa 0,0 l/m 2 min 0 min 120 W/m 21,7 km/h (4 Bft)
05.06.2015 06:46 14,5 C 13,3 C 81 % 0 lf 1019,4 hPa 0,0 l/m 2 min 0 min 125 W/m 16,4 km/h (3 Bft)
05.06.2015 06:48 14,5 C 13,9 C 81 % 0 lf 1019,4 hPa 0,0 l/m 2 min 0 min 129 W/m 24,4 km/h (4 Bft)
05.06.2015 06:50 14,6 C 13,9 C 81 % 0 lf 1019,3 hPa 0,0 l/m 2 min 0 min 134 W/m 24,4 km/h (4 Bft)
05.06.2015 06:52 14,6 C 13,9 C 81 % 0 lf 1019,3 hPa 0,0 l/m 2 min 0 min 139 W/m 19,0 km/h (3 Bft)
05.06.2015 06:54 14,7 C 13,9 C 81 % 0 lf 1019,3 hPa 0,0 l/m 2 min 0 min 145 W/m 27,2 km/h (4 Bft)
05.06.2015 06:56 14,7 C 13,9 C 81 % 0 lf 1019,4 hPa 0,0 l/m 2 min 0 min 148 W/m 21,7 km/h (4 Bft)
05.06.2015 06:58 14,8 C 13,9 C 81 % 0 lf 1019,4 hPa 0,0 l/m 2 min 0 min 154 W/m 19,0 km/h (3 Bft)
05.06.2015 07:00 14,8 C 13,9 C 81 % 0 lf 1019,4 hPa 0,0 l/m 2 min 0 min 160 W/m 19,0 km/h (3 Bft)
05.06.2015 07:02 14,9 C 13,9 C 81 % 0 lf 1019,4 hPa 0,0 l/m 2 min 0 min 165 W/m 21,7 km/h (4 Bft)
05.06.2015 07:04 14,9 C 13,9 C 81 % 0 lf 1019,3 hPa 0,0 l/m 2 min 0 min 169 W/m 24,4 km/h (4 Bft)
05.06.2015 07:06 15,0 C 13,9 C 80 % 0 lf 1019,4 hPa 0,0 l/m 2 min 0 min 174 W/m 24,4 km/h (4 Bft)
05.06.2015 07:08 15,1 C 13,9 C 80 % 0 lf 1019,3 hPa 0,0 l/m 2 min 0 min 180 W/m 19,0 km/h (3 Bft)
05.06.2015 07:10 15,1 C 14,4 C 80 % 0 lf 1019,4 hPa 0,0 l/m 2 min 0 min 185 W/m 16,4 km/h (3 Bft)
05.06.2015 07:12 15,2 C 14,4 C 80 % 0 lf 1019,4 hPa 0,0 l/m 2 min 0 min 190 W/m 19,0 km/h (3 Bft)
05.06.2015 07:14 15,2 C 14,4 C 80 % 0 lf 1019,4 hPa 0,0 l/m 2 min 0 min 196 W/m 16,4 km/h (3 Bft)
05.06.2015 07:16 15,3 C 14,4 C 80 % 0 lf 1019,4 hPa 0,0 l/m 2 min 0 min 200 W/m 19,0 km/h (3 Bft)
05.06.2015 07:18 15,3 C 14,4 C 80 % 0 lf 1019,4 hPa 0,0 l/m 2 min 0 min 206 W/m 19,0 km/h (3 Bft)
05.06.2015 07:20 15,3 C 14,4 C 80 % 0 lf 1019,4 hPa 0,0 l/m 2 min 0 min 212 W/m 16,4 km/h (3 Bft)
05.06.2015 07:22 15,4 C 14,4 C 80 % 0 lf 1019,4 hPa 0,0 l/m 2 min 0 min 217 W/m 13,6 km/h (3 Bft)
05.06.2015 07:24 15,4 C 14,4 C 80 % 0 lf 1019,4 hPa 0,0 l/m 2 min 0 min 222 W/m 16,4 km/h (3 Bft)
05.06.2015 07:26 15,5 C 14,4 C 80 % 0 lf 1019,4 hPa 0,0 l/m 2 min 0 min 228 W/m 10,9 km/h (2 Bft)
05.06.2015 07:28 15,6 C 14,4 C 80 % 0 lf 1019,5 hPa 0,0 l/m 2 min 0 min 234 W/m 19,0 km/h (3 Bft)
05.06.2015 07:30 15,6 C 14,4 C 80 % 0 lf 1019,5 hPa 0,0 l/m 2 min 0 min 238 W/m 13,6 km/h (3 Bft)
05.06.2015 07:32 15,7 C 15,0 C 80 % 0 lf 1019,4 hPa 0,0 l/m 2 min 0 min 244 W/m 10,9 km/h (2 Bft)
05.06.2015 07:34 15,7 C 15,0 C 79 % 0 lf 1019,4 hPa 0,0 l/m 2 min 0 min 248 W/m 21,7 km/h (4 Bft)
05.06.2015 07:36 15,8 C 15,0 C 79 % 0 lf 1019,4 hPa 0,0 l/m 2 min 0 min 255 W/m 19,0 km/h (3 Bft)
05.06.2015 07:38 15,8 C 15,0 C 79 % 0 lf 1019,5 hPa 0,0 l/m 2 min 0 min 261 W/m 21,7 km/h (4 Bft)
05.06.2015 07:40 15,9 C 15,0 C 79 % 0 lf 1019,4 hPa 0,0 l/m 2 min 0 min 266 W/m 19,0 km/h (3 Bft)
05.06.2015 07:42 15,9 C 15,0 C 79 % 0 lf 1019,4 hPa 0,0 l/m 2 min 0 min 272 W/m 19,0 km/h (3 Bft)
05.06.2015 07:44 16,0 C 15,0 C 79 % 0 lf 1019,5 hPa 0,0 l/m 2 min 0 min 278 W/m 16,4 km/h (3 Bft)
05.06.2015 07:46 16,1 C 15,0 C 78 % 0 lf 1019,5 hPa 0,0 l/m 2 min 0 min 284 W/m 21,7 km/h (4 Bft)
05.06.2015 07:48 16,1 C 15,0 C 78 % 0 lf 1019,4 hPa 0,0 l/m 2 min 0 min 288 W/m 19,0 km/h (3 Bft)
05.06.2015 07:50 16,2 C 15,0 C 78 % 0 lf 1019,4 hPa 0,0 l/m 2 min 0 min 294 W/m 16,4 km/h (3 Bft)
05.06.2015 07:52 16,3 C 15,0 C 78 % 0 lf 1019,4 hPa 0,0 l/m 2 min 0 min 300 W/m 21,7 km/h (4 Bft)
05.06.2015 07:54 16,3 C 15,6 C 78 % 0 lf 1019,4 hPa 0,0 l/m 2 min 0 min 305 W/m 24,4 km/h (4 Bft)
05.06.2015 07:56 16,4 C 15,6 C 77 % 0 lf 1019,4 hPa 0,0 l/m 2 min 0 min 311 W/m 19,0 km/h (3 Bft)
05.06.2015 07:58 16,5 C 15,6 C 77 % 0 lf 1019,4 hPa 0,0 l/m 2 min 0 min 317 W/m 21,7 km/h (4 Bft)
05.06.2015 08:00 16,6 C 15,6 C 77 % 0 lf 1019,4 hPa 0,0 l/m 2 min 0 min 322 W/m 13,6 km/h (3 Bft)
05.06.2015 08:02 16,6 C 15,6 C 77 % 0 lf 1019,4 hPa 0,0 l/m 2 min 0 min 329 W/m 21,7 km/h (4 Bft)
05.06.2015 08:04 16,7 C 15,6 C 77 % 0 lf 1019,4 hPa 0,0 l/m 2 min 0 min 335 W/m 24,4 km/h (4 Bft)
05.06.2015 08:06 16,8 C 16,1 C 77 % 0 lf 1019,3 hPa 0,0 l/m 2 min 0 min 340 W/m 27,2 km/h (4 Bft)
05.06.2015 08:08 16,9 C 16,1 C 76 % 0 lf 1019,3 hPa 0,0 l/m 2 min 0 min 346 W/m 21,7 km/h (4 Bft)
05.06.2015 08:10 17,0 C 16,1 C 76 % 0 lf 1019,3 hPa 0,0 l/m 2 min 0 min 351 W/m 16,4 km/h (3 Bft)
05.06.2015 08:12 17,1 C 16,1 C 76 % 0 lf 1019,2 hPa 0,0 l/m 2 min 0 min 357 W/m 21,7 km/h (4 Bft)
05.06.2015 08:14 17,2 C 16,1 C 76 % 0 lf 1019,2 hPa 0,0 l/m 2 min 0 min 364 W/m 19,0 km/h (3 Bft)
05.06.2015 08:16 17,2 C 16,1 C 76 % 0 lf 1019,2 hPa 0,0 l/m 2 min 0 min 369 W/m 27,2 km/h (4 Bft)
05.06.2015 08:18 17,3 C 16,1 C 76 % 0 lf 1019,2 hPa 0,0 l/m 2 min 0 min 376 W/m 27,2 km/h (4 Bft)
05.06.2015 08:20 17,4 C 16,1 C 75 % 0 lf 1019,2 hPa 0,0 l/m 2 min 0 min 381 W/m 24,4 km/h (4 Bft)
05.06.2015 08:22 17,5 C 16,7 C 75 % 0 lf 1019,1 hPa 0,0 l/m 2 min 0 min 387 W/m 24,4 km/h (4 Bft)
05.06.2015 08:24 17,6 C 16,7 C 74 % 0 lf 1019,1 hPa 0,0 l/m 2 min 0 min 393 W/m 27,2 km/h (4 Bft)
05.06.2015 08:26 17,7 C 16,7 C 74 % 0 lf 1019,0 hPa 0,0 l/m 2 min 0 min 398 W/m 29,9 km/h (5 Bft)
05.06.2015 08:28 17,8 C 16,7 C 74 % 0 lf 1019,0 hPa 0,0 l/m 2 min 0 min 405 W/m 21,7 km/h (4 Bft)
05.06.2015 08:30 17,8 C 16,7 C 74 % 0 lf 1019,0 hPa 0,0 l/m 2 min 0 min 410 W/m 21,7 km/h (4 Bft)
05.06.2015 08:32 18,0 C 16,7 C 74 % 0 lf 1019,0 hPa 0,0 l/m 2 min 0 min 416 W/m 29,9 km/h (5 Bft)
05.06.2015 08:34 18,1 C 16,7 C 74 % 0 lf 1019,1 hPa 0,0 l/m 2 min 0 min 421 W/m 16,4 km/h (3 Bft)
05.06.2015 08:36 18,2 C 16,7 C 74 % 0 lf 1019,0 hPa 0,0 l/m 2 min 0 min 427 W/m 21,7 km/h (4 Bft)
05.06.2015 08:38 18,4 C 16,7 C 73 % 0 lf 1019,0 hPa 0,0 l/m 2 min 0 min 432 W/m 16,4 km/h (3 Bft)
05.06.2015 08:40 18,5 C 17,2 C 73 % 0 lf 1019,0 hPa 0,0 l/m 2 min 0 min 439 W/m 21,7 km/h (4 Bft)
05.06.2015 08:42 18,7 C 17,2 C 73 % 0 lf 1019,0 hPa 0,0 l/m 2 min 0 min 444 W/m 21,7 km/h (4 Bft)
05.06.2015 08:44 18,8 C 17,2 C 73 % 0 lf 1018,9 hPa 0,0 l/m 2 min 0 min 449 W/m 21,7 km/h (4 Bft)
05.06.2015 08:46 18,9 C 17,8 C 72 % 0 lf 1019,0 hPa 0,0 l/m 2 min 0 min 455 W/m 24,4 km/h (4 Bft)
05.06.2015 08:48 19,1 C 17,8 C 72 % 0 lf 1018,9 hPa 0,0 l/m 2 min 0 min 461 W/m 24,4 km/h (4 Bft)
05.06.2015 08:50 19,3 C 17,8 C 72 % 0 lf 1018,9 hPa 0,0 l/m 2 min 0 min 466 W/m 16,4 km/h (3 Bft)
05.06.2015 08:52 19,4 C 17,8 C 72 % 0 lf 1018,9 hPa 0,0 l/m 2 min 0 min 472 W/m 27,2 km/h (4 Bft)
05.06.2015 08:54 19,6 C 17,8 C 71 % 0 lf 1018,9 hPa 0,0 l/m 2 min 0 min 477 W/m 29,9 km/h (5 Bft)
05.06.2015 08:56 19,8 C 17,8 C 71 % 0 lf 1018,9 hPa 0,0 l/m 2 min 0 min 482 W/m 24,4 km/h (4 Bft)
05.06.2015 08:58 19,9 C 18,3 C 71 % 0 lf 1018,9 hPa 0,0 l/m 2 min 0 min 488 W/m 29,9 km/h (5 Bft)
05.06.2015 09:00 20,1 C 18,3 C 70 % 0 lf 1018,9 hPa 0,0 l/m 2 min 0 min 493 W/m 27,2 km/h (4 Bft)
05.06.2015 09:02 20,3 C 18,3 C 70 % 0 lf 1018,9 hPa 0,0 l/m 2 min 0 min 499 W/m 27,2 km/h (4 Bft)
05.06.2015 09:04 20,4 C 18,3 C 69 % 0 lf 1018,9 hPa 0,0 l/m 2 min 0 min 504 W/m 24,4 km/h (4 Bft)
05.06.2015 09:06 20,6 C 18,3 C 68 % 0 lf 1018,9 hPa 0,0 l/m 2 min 0 min 510 W/m 24,4 km/h (4 Bft)
05.06.2015 09:08 20,7 C 18,3 C 69 % 0 lf 1018,9 hPa 0,0 l/m 2 min 0 min 515 W/m 16,4 km/h (3 Bft)
05.06.2015 09:10 20,9 C 18,9 C 69 % 0 lf 1018,9 hPa 0,0 l/m 2 min 0 min 520 W/m 13,6 km/h (3 Bft)
05.06.2015 09:12 21,0 C 18,9 C 68 % 0 lf 1018,9 hPa 0,0 l/m 2 min 0 min 525 W/m 19,0 km/h (3 Bft)
05.06.2015 09:14 21,2 C 18,9 C 68 % 0 lf 1018,9 hPa 0,0 l/m 2 min 0 min 532 W/m 24,4 km/h (4 Bft)
05.06.2015 09:16 21,3 C 18,9 C 68 % 0 lf 1018,9 hPa 0,0 l/m 2 min 0 min 536 W/m 19,0 km/h (3 Bft)
05.06.2015 09:18 21,5 C 18,9 C 66 % 0 lf 1018,9 hPa 0,0 l/m 2 min 0 min 542 W/m 21,7 km/h (4 Bft)
05.06.2015 09:20 21,6 C 19,4 C 66 % 0 lf 1018,9 hPa 0,0 l/m 2 min 0 min 546 W/m 27,2 km/h (4 Bft)
05.06.2015 09:22 21,8 C 19,4 C 66 % 0 lf 1018,9 hPa 0,0 l/m 2 min 0 min 552 W/m 27,2 km/h (4 Bft)
05.06.2015 09:24 21,8 C 19,4 C 65 % 0 lf 1018,9 hPa 0,0 l/m 2 min 0 min 556 W/m 21,7 km/h (4 Bft)
05.06.2015 09:26 22,0 C 19,4 C 65 % 0 lf 1018,9 hPa 0,0 l/m 2 min 0 min 562 W/m 21,7 km/h (4 Bft)
05.06.2015 09:28 22,1 C 19,4 C 65 % 0 lf 1018,9 hPa 0,0 l/m 2 min 0 min 566 W/m 21,7 km/h (4 Bft)
05.06.2015 09:30 22,2 C 19,4 C 64 % 0 lf 1018,9 hPa 0,0 l/m 2 min 0 min 571 W/m 21,7 km/h (4 Bft)
05.06.2015 09:32 22,3 C 20,0 C 65 % 0 lf 1018,9 hPa 0,0 l/m 2 min 0 min 577 W/m 27,2 km/h (4 Bft)
05.06.2015 09:34 22,4 C 20,0 C 65 % 0 lf 1018,9 hPa 0,0 l/m 2 min 0 min 582 W/m 21,7 km/h (4 Bft)
05.06.2015 09:36 22,6 C 20,0 C 64 % 0 lf 1018,9 hPa 0,0 l/m 2 min 0 min 587 W/m 27,2 km/h (4 Bft)
05.06.2015 09:38 22,7 C 20,0 C 64 % 0 lf 1018,9 hPa 0,0 l/m 2 min 0 min 591 W/m 16,4 km/h (3 Bft)
05.06.2015 09:40 22,8 C 20,0 C 64 % 0 lf 1018,9 hPa 0,0 l/m 2 min 0 min 596 W/m 21,7 km/h (4 Bft)
05.06.2015 09:42 22,9 C 20,6 C 63 % 0 lf 1018,8 hPa 0,0 l/m 2 min 0 min 601 W/m 21,7 km/h (4 Bft)
05.06.2015 09:44 23,1 C 20,6 C 63 % 0 lf 1018,8 hPa 0,0 l/m 2 min 0 min 606 W/m 21,7 km/h (4 Bft)
05.06.2015 09:46 23,2 C 20,6 C 63 % 0 lf 1018,8 hPa 0,0 l/m 2 min 0 min 610 W/m 16,4 km/h (3 Bft)
05.06.2015 09:48 23,3 C 20,6 C 63 % 0 lf 1018,7 hPa 0,0 l/m 2 min 0 min 614 W/m 21,7 km/h (4 Bft)
05.06.2015 09:50 23,4 C 21,1 C 63 % 0 lf 1018,6 hPa 0,0 l/m 2 min 0 min 618 W/m 19,0 km/h (3 Bft)
05.06.2015 09:52 23,5 C 21,1 C 63 % 0 lf 1018,7 hPa 0,0 l/m 2 min 0 min 624 W/m 24,4 km/h (4 Bft)
05.06.2015 09:54 23,6 C 21,1 C 62 % 0 lf 1018,7 hPa 0,0 l/m 2 min 0 min 629 W/m 24,4 km/h (4 Bft)
05.06.2015 09:56 23,7 C 21,7 C 62 % 0 lf 1018,7 hPa 0,0 l/m 2 min 0 min 624 W/m 21,7 km/h (4 Bft)
05.06.2015 09:58 23,8 C 21,7 C 62 % 0 lf 1018,7 hPa 0,0 l/m 2 min 0 min 638 W/m 29,9 km/h (5 Bft)
05.06.2015 10:00 23,9 C 23,3 C 62 % 0 lf 1018,7 hPa 0,0 l/m 2 min 0 min 642 W/m 24,4 km/h (4 Bft)
05.06.2015 10:02 24,1 C 24,4 C 62 % 0 lf 1018,7 hPa 0,0 l/m 2 min 0 min 646 W/m 24,4 km/h (4 Bft)
05.06.2015 10:04 24,2 C 23,9 C 61 % 0 lf 1018,7 hPa 0,0 l/m 2 min 0 min 650 W/m 21,7 km/h (4 Bft)
05.06.2015 10:06 24,3 C 25,6 C 61 % 0 lf 1018,7 hPa 0,0 l/m 2 min 0 min 656 W/m 21,7 km/h (4 Bft)
05.06.2015 10:08 24,4 C 25,6 C 60 % 0 lf 1018,6 hPa 0,0 l/m 2 min 0 min 661 W/m 19,0 km/h (3 Bft)
05.06.2015 10:10 24,6 C 24,4 C 60 % 0 lf 1018,6 hPa 0,0 l/m 2 min 0 min 664 W/m 27,2 km/h (4 Bft)
05.06.2015 10:12 24,7 C 25,0 C 60 % 0 lf 1018,6 hPa 0,0 l/m 2 min 0 min 668 W/m 24,4 km/h (4 Bft)
05.06.2015 10:14 24,7 C 27,2 C 60 % 0 lf 1018,6 hPa 0,0 l/m 2 min 0 min 673 W/m 24,4 km/h (4 Bft)
05.06.2015 10:16 24,8 C 27,8 C 59 % 0 lf 1018,6 hPa 0,0 l/m 2 min 0 min 678 W/m 21,7 km/h (4 Bft)
05.06.2015 10:18 24,9 C 27,8 C 59 % 0 lf 1018,6 hPa 0,0 l/m 2 min 0 min 681 W/m 21,7 km/h (4 Bft)
05.06.2015 10:20 25,0 C 28,3 C 59 % 0 lf 1018,7 hPa 0,0 l/m 2 min 0 min 685 W/m 21,7 km/h (4 Bft)
05.06.2015 10:22 25,1 C 27,8 C 59 % 0 lf 1018,6 hPa 0,0 l/m 2 min 0 min 689 W/m 19,0 km/h (3 Bft)
05.06.2015 10:24 25,1 C 27,2 C 60 % 0 lf 1018,6 hPa 0,0 l/m 2 min 0 min 693 W/m 19,0 km/h (3 Bft)
05.06.2015 10:26 25,2 C 27,8 C 60 % 0 lf 1018,6 hPa 0,0 l/m 2 min 0 min 698 W/m 24,4 km/h (4 Bft)
05.06.2015 10:28 25,3 C 27,8 C 60 % 0 lf 1018,6 hPa 0,0 l/m 2 min 0 min 701 W/m 24,4 km/h (4 Bft)
05.06.2015 10:30 25,4 C 28,3 C 60 % 0 lf 1018,6 hPa 0,0 l/m 2 min 0 min 706 W/m 24,4 km/h (4 Bft)
05.06.2015 10:32 25,4 C 27,8 C 59 % 0 lf 1018,6 hPa 0,0 l/m 2 min 0 min 710 W/m 21,7 km/h (4 Bft)
05.06.2015 10:34 25,5 C 27,2 C 59 % 0 lf 1018,6 hPa 0,0 l/m 2 min 0 min 714 W/m 19,0 km/h (3 Bft)
05.06.2015 10:36 25,6 C 27,2 C 59 % 0 lf 1018,6 hPa 0,0 l/m 2 min 0 min 717 W/m 21,7 km/h (4 Bft)
05.06.2015 10:38 25,7 C 26,1 C 59 % 0 lf 1018,5 hPa 0,0 l/m 2 min 0 min 723 W/m 24,4 km/h (4 Bft)
05.06.2015 10:40 25,8 C 26,1 C 58 % 0 lf 1018,5 hPa 0,0 l/m 2 min 0 min 726 W/m 19,0 km/h (3 Bft)
05.06.2015 10:42 25,9 C 26,7 C 58 % 0 lf 1018,5 hPa 0,0 l/m 2 min 0 min 729 W/m 24,4 km/h (4 Bft)
05.06.2015 10:44 26,0 C 27,2 C 58 % 0 lf 1018,5 hPa 0,0 l/m 2 min 0 min 733 W/m 24,4 km/h (4 Bft)
05.06.2015 10:46 26,1 C 27,2 C 58 % 0 lf 1018,5 hPa 0,0 l/m 2 min 0 min 737 W/m 19,0 km/h (3 Bft)
05.06.2015 10:48 26,2 C 27,2 C 57 % 0 lf 1018,5 hPa 0,0 l/m 2 min 0 min 741 W/m 24,4 km/h (4 Bft)
05.06.2015 10:50 26,3 C 27,2 C 57 % 0 lf 1018,5 hPa 0,0 l/m 2 min 0 min 745 W/m 19,0 km/h (3 Bft)
05.06.2015 10:52 26,4 C 27,8 C 57 % 0 lf 1018,6 hPa 0,0 l/m 2 min 0 min 749 W/m 21,7 km/h (4 Bft)
05.06.2015 10:54 26,4 C 27,8 C 56 % 0 lf 1018,5 hPa 0,0 l/m 2 min 0 min 754 W/m 21,7 km/h (4 Bft)
05.06.2015 10:56 26,6 C 28,3 C 56 % 0 lf 1018,5 hPa 0,0 l/m 2 min 0 min 756 W/m 13,6 km/h (3 Bft)
05.06.2015 10:58 26,7 C 29,4 C 58 % 0 lf 1018,5 hPa 0,0 l/m 2 min 0 min 759 W/m 19,0 km/h (3 Bft)
05.06.2015 11:00 26,8 C 30,0 C 57 % 0 lf 1018,5 hPa 0,0 l/m 2 min 0 min 762 W/m 16,4 km/h (3 Bft)
05.06.2015 11:02 26,9 C 30,0 C 58 % 0 lf 1018,5 hPa 0,0 l/m 2 min 0 min 765 W/m 8,2 km/h (2 Bft)
05.06.2015 11:04 27,0 C 30,6 C 58 % 0 lf 1018,5 hPa 0,0 l/m 2 min 0 min 770 W/m 19,0 km/h (3 Bft)
05.06.2015 11:06 27,2 C 30,0 C 58 % 0 lf 1018,5 hPa 0,0 l/m 2 min 0 min 774 W/m 16,4 km/h (3 Bft)
05.06.2015 11:08 27,3 C 30,0 C 56 % 0 lf 1018,5 hPa 0,0 l/m 2 min 0 min 779 W/m 19,0 km/h (3 Bft)
05.06.2015 11:10 27,4 C 30,6 C 56 % 0 lf 1018,4 hPa 0,0 l/m 2 min 0 min 780 W/m 16,4 km/h (3 Bft)
05.06.2015 11:12 27,6 C 30,6 C 56 % 0 lf 1018,4 hPa 0,0 l/m 2 min 0 min 783 W/m 21,7 km/h (4 Bft)
05.06.2015 11:14 27,7 C 30,6 C 55 % 0 lf 1018,4 hPa 0,0 l/m 2 min 0 min 787 W/m 19,0 km/h (3 Bft)
05.06.2015 11:16 27,8 C 30,6 C 55 % 0 lf 1018,5 hPa 0,0 l/m 2 min 0 min 791 W/m 16,4 km/h (3 Bft)
05.06.2015 11:18 27,9 C 30,6 C 55 % 0 lf 1018,4 hPa 0,0 l/m 2 min 0 min 793 W/m 19,0 km/h (3 Bft)
05.06.2015 11:20 28,0 C 30,0 C 55 % 0 lf 1018,4 hPa 0,0 l/m 2 min 0 min 796 W/m 16,4 km/h (3 Bft)
05.06.2015 11:22 28,1 C 30,6 C 55 % 0 lf 1018,4 hPa 0,0 l/m 2 min 0 min 798 W/m 19,0 km/h (3 Bft)
05.06.2015 11:24 28,2 C 31,1 C 55 % 0 lf 1018,4 hPa 0,0 l/m 2 min 0 min 803 W/m 19,0 km/h (3 Bft)
05.06.2015 11:26 28,3 C 30,6 C 55 % 0 lf 1018,3 hPa 0,0 l/m 2 min 0 min 805 W/m 19,0 km/h (3 Bft)
05.06.2015 11:28 28,4 C 30,0 C 53 % 0 lf 1018,3 hPa 0,0 l/m 2 min 0 min 807 W/m 21,7 km/h (4 Bft)
05.06.2015 11:30 28,4 C 29,4 C 53 % 0 lf 1018,3 hPa 0,0 l/m 2 min 0 min 811 W/m 19,0 km/h (3 Bft)
05.06.2015 11:32 28,5 C 28,3 C 54 % 0 lf 1018,3 hPa 0,0 l/m 2 min 0 min 816 W/m 21,7 km/h (4 Bft)
05.06.2015 11:34 28,6 C 27,8 C 53 % 0 lf 1018,3 hPa 0,0 l/m 2 min 0 min 817 W/m 13,6 km/h (3 Bft)
05.06.2015 11:36 28,7 C 27,8 C 52 % 0 lf 1018,3 hPa 0,0 l/m 2 min 0 min 821 W/m 19,0 km/h (3 Bft)
05.06.2015 11:38 28,8 C 28,3 C 52 % 0 lf 1018,3 hPa 0,0 l/m 2 min 0 min 822 W/m 16,4 km/h (3 Bft)
05.06.2015 11:40 28,8 C 30,0 C 52 % 0 lf 1018,2 hPa 0,0 l/m 2 min 0 min 825 W/m 16,4 km/h (3 Bft)
05.06.2015 11:42 28,9 C 31,7 C 52 % 0 lf 1018,2 hPa 0,0 l/m 2 min 0 min 828 W/m 16,4 km/h (3 Bft)
05.06.2015 11:44 29,0 C 32,2 C 53 % 0 lf 1018,2 hPa 0,0 l/m 2 min 0 min 820 W/m 19,0 km/h (3 Bft)
05.06.2015 11:46 29,1 C 32,2 C 52 % 0 lf 1018,1 hPa 0,0 l/m 2 min 0 min 800 W/m 19,0 km/h (3 Bft)
05.06.2015 11:48 29,2 C 32,8 C 52 % 0 lf 1018,1 hPa 0,0 l/m 2 min 0 min 498 W/m 19,0 km/h (3 Bft)
05.06.2015 11:50 29,3 C 33,3 C 54 % 0 lf 1018,1 hPa 0,0 l/m 2 min 0 min 667 W/m 19,0 km/h (3 Bft)
05.06.2015 11:52 29,3 C 33,9 C 51 % 0 lf 1018,1 hPa 0,0 l/m 2 min 0 min 777 W/m 16,4 km/h (3 Bft)
05.06.2015 11:54 29,4 C 33,9 C 51 % 0 lf 1018,1 hPa 0,0 l/m 2 min 0 min 829 W/m 13,6 km/h (3 Bft)
05.06.2015 11:56 29,6 C 33,3 C 52 % 0 lf 1018,1 hPa 0,0 l/m 2 min 0 min 844 W/m 19,0 km/h (3 Bft)
05.06.2015 11:58 29,7 C 33,9 C 50 % 0 lf 1018,1 hPa 0,0 l/m 2 min 0 min 847 W/m 10,9 km/h (2 Bft)
05.06.2015 12:00 29,8 C 33,9 C 50 % 0 lf 1018,0 hPa 0,0 l/m 2 min 0 min 847 W/m 13,6 km/h (3 Bft)
05.06.2015 12:02 29,9 C 34,4 C 54 % 0 lf 1018,0 hPa 0,0 l/m 2 min 0 min 848 W/m 19,0 km/h (3 Bft)
05.06.2015 12:06 30,1 C 34,4 C 50 % 0 lf 1018,0 hPa 0,0 l/m 2 min 0 min 854 W/m 16,4 km/h (3 Bft)
05.06.2015 12:08 30,2 C 34,4 C 51 % 0 lf 1017,9 hPa 0,0 l/m 2 min 0 min 857 W/m 16,4 km/h (3 Bft)
05.06.2015 12:10 30,3 C 34,4 C 49 % 0 lf 1017,9 hPa 0,0 l/m 2 min 0 min 860 W/m 10,9 km/h (2 Bft)
05.06.2015 12:12 30,5 C 34,4 C 51 % 0 lf 1017,9 hPa 0,0 l/m 2 min 0 min 861 W/m 21,7 km/h (4 Bft)
05.06.2015 12:14 30,6 C 34,4 C 50 % 0 lf 1017,9 hPa 0,0 l/m 2 min 0 min 835 W/m 13,6 km/h (3 Bft)
05.06.2015 12:16 30,7 C 33,9 C 50 % 0 lf 1017,9 hPa 0,0 l/m 2 min 0 min 772 W/m 21,7 km/h (4 Bft)
05.06.2015 12:18 30,8 C 33,9 C 49 % 0 lf 1017,8 hPa 0,0 l/m 0 min 0 min 158 W/m 16,4 km/h (3 Bft)
05.06.2015 12:20 30,9 C 33,9 C 48 % 0 lf 1017,8 hPa 0,0 l/m 2 min 0 min 422 W/m 13,6 km/h (3 Bft)
05.06.2015 12:22 30,9 C 33,9 C 50 % 0 lf 1017,8 hPa 0,0 l/m 2 min 0 min 866 W/m 21,7 km/h (4 Bft)
05.06.2015 12:24 30,9 C 32,8 C 48 % 0 lf 1017,8 hPa 0,0 l/m 2 min 0 min 867 W/m 21,7 km/h (4 Bft)
05.06.2015 12:26 31,0 C 32,8 C 48 % 0 lf 1017,8 hPa 0,0 l/m 2 min 0 min 868 W/m 21,7 km/h (4 Bft)
05.06.2015 12:28 31,1 C 32,8 C 49 % 0 lf 1017,8 hPa 0,0 l/m 2 min 0 min 872 W/m 16,4 km/h (3 Bft)
05.06.2015 12:30 31,1 C 33,3 C 49 % 0 lf 1017,8 hPa 0,0 l/m 2 min 0 min 872 W/m 19,0 km/h (3 Bft)
05.06.2015 12:32 31,2 C 33,3 C 48 % 0 lf 1017,8 hPa 0,0 l/m 2 min 0 min 871 W/m 24,4 km/h (4 Bft)
05.06.2015 12:34 31,3 C 33,3 C 48 % 0 lf 1017,8 hPa 0,0 l/m 2 min 0 min 877 W/m 27,2 km/h (4 Bft)
05.06.2015 12:36 31,4 C 32,2 C 47 % 0 lf 1017,8 hPa 0,0 l/m 2 min 0 min 880 W/m 29,9 km/h (5 Bft)
05.06.2015 12:38 31,4 C 32,2 C 47 % 0 lf 1017,7 hPa 0,0 l/m 2 min 0 min 887 W/m 16,4 km/h (3 Bft)
05.06.2015 12:40 31,5 C 32,8 C 49 % 0 lf 1017,7 hPa 0,0 l/m 2 min 0 min 888 W/m 21,7 km/h (4 Bft)
05.06.2015 12:42 31,6 C 32,8 C 47 % 0 lf 1017,7 hPa 0,0 l/m 2 min 0 min 886 W/m 21,7 km/h (4 Bft)
05.06.2015 12:44 31,7 C 32,2 C 46 % 0 lf 1017,6 hPa 0,0 l/m 2 min 0 min 886 W/m 19,0 km/h (3 Bft)
05.06.2015 12:46 31,7 C 32,2 C 46 % 0 lf 1017,5 hPa 0,0 l/m 2 min 0 min 882 W/m 19,0 km/h (3 Bft)
05.06.2015 12:48 31,8 C 31,1 C 46 % 0 lf 1017,6 hPa 0,0 l/m 2 min 0 min 885 W/m 29,9 km/h (5 Bft)
05.06.2015 12:50 31,8 C 30,6 C 46 % 0 lf 1017,6 hPa 0,0 l/m 2 min 0 min 886 W/m 24,4 km/h (4 Bft)
05.06.2015 12:52 31,9 C 30,6 C 47 % 0 lf 1017,6 hPa 0,0 l/m 2 min 0 min 885 W/m 8,2 km/h (2 Bft)
05.06.2015 12:54 31,9 C 30,6 C 47 % 0 lf 1017,6 hPa 0,0 l/m 2 min 0 min 888 W/m 10,9 km/h (2 Bft)
05.06.2015 12:56 32,0 C 30,0 C 45 % 0 lf 1017,5 hPa 0,0 l/m 2 min 0 min 889 W/m 27,2 km/h (4 Bft)
05.06.2015 12:58 32,0 C 30,0 C 46 % 0 lf 1017,6 hPa 0,0 l/m 2 min 0 min 890 W/m 13,6 km/h (3 Bft)
05.06.2015 13:00 32,1 C 30,0 C 46 % 0 lf 1017,5 hPa 0,0 l/m 2 min 0 min 892 W/m 13,6 km/h (3 Bft)
05.06.2015 13:02 32,1 C 30,6 C 46 % 0 lf 1017,5 hPa 0,0 l/m 2 min 0 min 893 W/m 21,7 km/h (4 Bft)
05.06.2015 13:04 32,2 C 31,1 C 45 % 0 lf 1017,4 hPa 0,0 l/m 2 min 0 min 893 W/m 19,0 km/h (3 Bft)
05.06.2015 13:06 32,2 C 32,2 C 45 % 0 lf 1017,4 hPa 0,0 l/m 2 min 0 min 894 W/m 24,4 km/h (4 Bft)
05.06.2015 13:08 32,3 C 32,8 C 44 % 0 lf 1017,4 hPa 0,0 l/m 2 min 0 min 896 W/m 24,4 km/h (4 Bft)
05.06.2015 13:10 32,3 C 33,3 C 45 % 0 lf 1017,4 hPa 0,0 l/m 2 min 0 min 896 W/m 29,9 km/h (5 Bft)
05.06.2015 13:12 32,4 C 34,4 C 45 % 0 lf 1017,3 hPa 0,0 l/m 2 min 0 min 896 W/m 19,0 km/h (3 Bft)
05.06.2015 13:14 32,4 C 35,0 C 44 % 0 lf 1017,4 hPa 0,0 l/m 2 min 0 min 898 W/m 27,2 km/h (4 Bft)
05.06.2015 13:16 32,5 C 33,3 C 43 % 0 lf 1017,3 hPa 0,0 l/m 2 min 0 min 900 W/m 27,2 km/h (4 Bft)
05.06.2015 13:18 32,6 C 32,2 C 45 % 0 lf 1017,3 hPa 0,0 l/m 2 min 0 min 899 W/m 19,0 km/h (3 Bft)
05.06.2015 13:20 32,6 C 31,1 C 45 % 0 lf 1017,3 hPa 0,0 l/m 2 min 0 min 901 W/m 19,0 km/h (3 Bft)
05.06.2015 13:22 32,7 C 31,1 C 45 % 0 lf 1017,3 hPa 0,0 l/m 2 min 0 min 904 W/m 19,0 km/h (3 Bft)
05.06.2015 13:24 32,8 C 30,6 C 45 % 0 lf 1017,2 hPa 0,0 l/m 2 min 0 min 902 W/m 19,0 km/h (3 Bft)
05.06.2015 13:26 32,8 C 30,6 C 44 % 0 lf 1017,3 hPa 0,0 l/m 2 min 0 min 901 W/m 13,6 km/h (3 Bft)
05.06.2015 13:28 32,9 C 30,6 C 43 % 0 lf 1017,2 hPa 0,0 l/m 2 min 0 min 900 W/m 19,0 km/h (3 Bft)
05.06.2015 13:30 33,0 C 30,0 C 44 % 0 lf 1017,2 hPa 0,0 l/m 2 min 0 min 896 W/m 8,2 km/h (2 Bft)
05.06.2015 13:32 33,1 C 30,0 C 44 % 0 lf 1017,2 hPa 0,0 l/m 2 min 0 min 896 W/m 29,9 km/h (5 Bft)
05.06.2015 13:34 33,1 C 30,0 C 44 % 0 lf 1017,2 hPa 0,0 l/m 2 min 0 min 895 W/m 24,4 km/h (4 Bft)
05.06.2015 13:36 33,1 C 30,6 C 43 % 0 lf 1017,2 hPa 0,0 l/m 2 min 0 min 895 W/m 21,7 km/h (4 Bft)
05.06.2015 13:38 33,2 C 30,0 C 43 % 0 lf 1017,1 hPa 0,0 l/m 2 min 0 min 896 W/m 19,0 km/h (3 Bft)
05.06.2015 13:40 33,2 C 30,0 C 45 % 0 lf 1017,1 hPa 0,0 l/m 2 min 0 min 897 W/m 19,0 km/h (3 Bft)
05.06.2015 13:42 33,3 C 30,0 C 43 % 0 lf 1017,1 hPa 0,0 l/m 2 min 0 min 898 W/m 19,0 km/h (3 Bft)
05.06.2015 13:44 33,3 C 30,0 C 44 % 0 lf 1017,0 hPa 0,0 l/m 2 min 0 min 896 W/m 19,0 km/h (3 Bft)
05.06.2015 13:46 33,4 C 30,0 C 44 % 0 lf 1017,0 hPa 0,0 l/m 2 min 0 min 895 W/m 19,0 km/h (3 Bft)
05.06.2015 13:48 33,4 C 30,0 C 43 % 0 lf 1017,0 hPa 0,0 l/m 2 min 0 min 894 W/m 19,0 km/h (3 Bft)
05.06.2015 13:50 33,4 C 30,0 C 42 % 0 lf 1016,9 hPa 0,0 l/m 2 min 0 min 890 W/m 21,7 km/h (4 Bft)
05.06.2015 13:52 33,5 C 30,0 C 44 % 0 lf 1016,9 hPa 0,0 l/m 2 min 0 min 891 W/m 21,7 km/h (4 Bft)
05.06.2015 13:54 33,5 C 30,0 C 44 % 0 lf 1016,9 hPa 0,0 l/m 2 min 0 min 890 W/m 10,9 km/h (2 Bft)
05.06.2015 13:56 33,6 C 30,0 C 43 % 0 lf 1016,8 hPa 0,0 l/m 2 min 0 min 889 W/m 10,9 km/h (2 Bft)
05.06.2015 13:58 33,6 C 30,0 C 45 % 0 lf 1016,8 hPa 0,0 l/m 2 min 0 min 887 W/m 27,2 km/h (4 Bft)
05.06.2015 14:00 33,7 C 30,0 C 43 % 0 lf 1016,8 hPa 0,0 l/m 2 min 0 min 885 W/m 19,0 km/h (3 Bft)
05.06.2015 14:02 33,7 C 30,0 C 44 % 0 lf 1016,8 hPa 0,0 l/m 2 min 0 min 887 W/m 29,9 km/h (5 Bft)
05.06.2015 14:04 33,7 C 30,0 C 42 % 0 lf 1016,8 hPa 0,0 l/m 2 min 0 min 887 W/m 19,0 km/h (3 Bft)
05.06.2015 14:06 33,7 C 30,0 C 44 % 0 lf 1016,7 hPa 0,0 l/m 2 min 0 min 886 W/m 24,4 km/h (4 Bft)
05.06.2015 14:08 33,6 C 30,0 C 43 % 0 lf 1016,7 hPa 0,0 l/m 2 min 0 min 883 W/m 19,0 km/h (3 Bft)
05.06.2015 14:10 33,6 C 30,0 C 43 % 0 lf 1016,7 hPa 0,0 l/m 2 min 0 min 882 W/m 32,6 km/h (5 Bft)
05.06.2015 14:12 33,6 C 30,0 C 42 % 0 lf 1016,7 hPa 0,0 l/m 2 min 0 min 884 W/m 29,9 km/h (5 Bft)
05.06.2015 14:14 33,6 C 30,6 C 44 % 0 lf 1016,7 hPa 0,0 l/m 2 min 0 min 881 W/m 24,4 km/h (4 Bft)
05.06.2015 14:16 33,6 C 30,6 C 42 % 0 lf 1016,7 hPa 0,0 l/m 2 min 0 min 880 W/m 29,9 km/h (5 Bft)
05.06.2015 14:18 33,6 C 30,6 C 44 % 0 lf 1016,7 hPa 0,0 l/m 2 min 0 min 878 W/m 16,4 km/h (3 Bft)
05.06.2015 14:20 33,7 C 30,6 C 44 % 0 lf 1016,7 hPa 0,0 l/m 2 min 0 min 878 W/m 16,4 km/h (3 Bft)
05.06.2015 14:22 33,7 C 30,6 C 43 % 0 lf 1016,6 hPa 0,0 l/m 2 min 0 min 878 W/m 16,4 km/h (3 Bft)
05.06.2015 14:24 33,7 C 30,6 C 43 % 0 lf 1016,6 hPa 0,0 l/m 2 min 0 min 876 W/m 19,0 km/h (3 Bft)
05.06.2015 14:26 33,7 C 31,1 C 44 % 0 lf 1016,6 hPa 0,0 l/m 2 min 0 min 869 W/m 16,4 km/h (3 Bft)
05.06.2015 14:28 33,8 C 31,1 C 44 % 0 lf 1016,6 hPa 0,0 l/m 2 min 0 min 867 W/m 21,7 km/h (4 Bft)
05.06.2015 14:30 33,8 C 30,6 C 43 % 0 lf 1016,5 hPa 0,0 l/m 2 min 0 min 867 W/m 24,4 km/h (4 Bft)
05.06.2015 14:32 33,9 C 30,6 C 44 % 0 lf 1016,5 hPa 0,0 l/m 2 min 0 min 865 W/m 24,4 km/h (4 Bft)
05.06.2015 14:34 33,9 C 30,6 C 42 % 0 lf 1016,5 hPa 0,0 l/m 2 min 0 min 864 W/m 13,6 km/h (3 Bft)
05.06.2015 14:36 33,9 C 31,1 C 43 % 0 lf 1016,5 hPa 0,0 l/m 2 min 0 min 863 W/m 21,7 km/h (4 Bft)
05.06.2015 14:38 34,0 C 30,6 C 42 % 0 lf 1016,4 hPa 0,0 l/m 2 min 0 min 862 W/m 32,6 km/h (5 Bft)
05.06.2015 14:40 34,0 C 30,6 C 43 % 0 lf 1016,4 hPa 0,0 l/m 2 min 0 min 860 W/m 29,9 km/h (5 Bft)
05.06.2015 14:42 34,1 C 31,1 C 44 % 0 lf 1016,4 hPa 0,0 l/m 2 min 0 min 860 W/m 21,7 km/h (4 Bft)
05.06.2015 14:44 34,1 C 31,1 C 42 % 0 lf 1016,4 hPa 0,0 l/m 2 min 0 min 855 W/m 16,4 km/h (3 Bft)
05.06.2015 14:46 34,1 C 31,1 C 43 % 0 lf 1016,4 hPa 0,0 l/m 2 min 0 min 853 W/m 27,2 km/h (4 Bft)
05.06.2015 14:48 34,1 C 31,1 C 42 % 0 lf 1016,3 hPa 0,0 l/m 2 min 0 min 850 W/m 24,4 km/h (4 Bft)
05.06.2015 14:50 34,1 C 31,1 C 43 % 0 lf 1016,3 hPa 0,0 l/m 2 min 0 min 847 W/m 21,7 km/h (4 Bft)
05.06.2015 14:52 34,1 C 31,1 C 42 % 0 lf 1016,3 hPa 0,0 l/m 2 min 0 min 847 W/m 19,0 km/h (3 Bft)
05.06.2015 14:54 34,2 C 31,1 C 43 % 0 lf 1016,3 hPa 0,0 l/m 2 min 0 min 847 W/m 32,6 km/h (5 Bft)
05.06.2015 14:56 34,2 C 31,1 C 44 % 0 lf 1016,3 hPa 0,0 l/m 2 min 0 min 840 W/m 21,7 km/h (4 Bft)
05.06.2015 14:58 34,2 C 31,1 C 43 % 0 lf 1016,2 hPa 0,0 l/m 2 min 0 min 836 W/m 19,0 km/h (3 Bft)
05.06.2015 15:00 34,3 C 31,1 C 46 % 0 lf 1016,2 hPa 0,0 l/m 2 min 0 min 832 W/m 19,0 km/h (3 Bft)
05.06.2015 15:02 34,4 C 31,7 C 44 % 0 lf 1016,2 hPa 0,0 l/m 2 min 0 min 830 W/m 21,7 km/h (4 Bft)
05.06.2015 15:04 34,4 C 31,1 C 44 % 0 lf 1016,1 hPa 0,0 l/m 2 min 0 min 827 W/m 24,4 km/h (4 Bft)
05.06.2015 15:06 34,4 C 31,1 C 42 % 0 lf 1016,1 hPa 0,0 l/m 2 min 0 min 826 W/m 29,9 km/h (5 Bft)
05.06.2015 15:08 34,5 C 31,1 C 42 % 0 lf 1016,0 hPa 0,0 l/m 2 min 0 min 822 W/m 19,0 km/h (3 Bft)
05.06.2015 15:10 34,6 C 31,7 C 44 % 0 lf 1016,0 hPa 0,0 l/m 2 min 0 min 819 W/m 21,7 km/h (4 Bft)
05.06.2015 15:12 34,7 C 31,7 C 43 % 0 lf 1015,9 hPa 0,0 l/m 2 min 0 min 814 W/m 24,4 km/h (4 Bft)
05.06.2015 15:14 34,7 C 31,7 C 42 % 0 lf 1015,9 hPa 0,0 l/m 2 min 0 min 812 W/m 21,7 km/h (4 Bft)
05.06.2015 15:16 34,7 C 31,1 C 44 % 0 lf 1015,9 hPa 0,0 l/m 2 min 0 min 809 W/m 21,7 km/h (4 Bft)
05.06.2015 15:18 34,7 C 31,1 C 42 % 0 lf 1015,9 hPa 0,0 l/m 2 min 0 min 809 W/m 21,7 km/h (4 Bft)
05.06.2015 15:20 34,7 C 31,1 C 42 % 0 lf 1015,9 hPa 0,0 l/m 2 min 0 min 808 W/m 13,6 km/h (3 Bft)
05.06.2015 15:22 34,7 C 31,1 C 42 % 0 lf 1015,9 hPa 0,0 l/m 2 min 0 min 805 W/m 21,7 km/h (4 Bft)
05.06.2015 15:24 34,7 C 31,7 C 42 % 0 lf 1015,8 hPa 0,0 l/m 2 min 0 min 803 W/m 24,4 km/h (4 Bft)
05.06.2015 15:26 34,7 C 31,7 C 43 % 0 lf 1015,8 hPa 0,0 l/m 2 min 0 min 803 W/m 19,0 km/h (3 Bft)
05.06.2015 15:28 34,7 C 31,7 C 42 % 0 lf 1015,8 hPa 0,0 l/m 2 min 0 min 799 W/m 27,2 km/h (4 Bft)
05.06.2015 15:30 34,7 C 31,7 C 43 % 0 lf 1015,9 hPa 0,0 l/m 2 min 0 min 793 W/m 27,2 km/h (4 Bft)
05.06.2015 15:32 34,7 C 31,7 C 42 % 0 lf 1015,8 hPa 0,0 l/m 2 min 0 min 784 W/m 32,6 km/h (5 Bft)
05.06.2015 15:34 34,7 C 31,7 C 41 % 0 lf 1015,8 hPa 0,0 l/m 2 min 0 min 783 W/m 29,9 km/h (5 Bft)
05.06.2015 15:36 34,6 C 31,7 C 42 % 0 lf 1015,7 hPa 0,0 l/m 2 min 0 min 784 W/m 21,7 km/h (4 Bft)
05.06.2015 15:38 34,6 C 31,7 C 42 % 0 lf 1015,7 hPa 0,0 l/m 2 min 0 min 777 W/m 24,4 km/h (4 Bft)
05.06.2015 15:40 34,6 C 31,7 C 43 % 0 lf 1015,7 hPa 0,0 l/m 2 min 0 min 769 W/m 27,2 km/h (4 Bft)
05.06.2015 15:42 34,6 C 31,7 C 43 % 0 lf 1015,7 hPa 0,0 l/m 2 min 0 min 769 W/m 24,4 km/h (4 Bft)
05.06.2015 15:44 34,7 C 32,2 C 42 % 0 lf 1015,6 hPa 0,0 l/m 2 min 0 min 767 W/m 24,4 km/h (4 Bft)
05.06.2015 15:46 34,7 C 31,7 C 42 % 0 lf 1015,6 hPa 0,0 l/m 2 min 0 min 759 W/m 32,6 km/h (5 Bft)
05.06.2015 15:48 34,7 C 31,7 C 44 % 0 lf 1015,6 hPa 0,0 l/m 2 min 0 min 758 W/m 27,2 km/h (4 Bft)
05.06.2015 15:50 34,7 C 32,2 C 42 % 0 lf 1015,6 hPa 0,0 l/m 2 min 0 min 756 W/m 24,4 km/h (4 Bft)
05.06.2015 15:52 34,7 C 32,2 C 42 % 0 lf 1015,6 hPa 0,0 l/m 2 min 0 min 759 W/m 21,7 km/h (4 Bft)
05.06.2015 15:54 34,7 C 32,2 C 42 % 0 lf 1015,5 hPa 0,0 l/m 2 min 0 min 756 W/m 19,0 km/h (3 Bft)
05.06.2015 15:56 34,8 C 32,2 C 43 % 0 lf 1015,5 hPa 0,0 l/m 2 min 0 min 746 W/m 19,0 km/h (3 Bft)
05.06.2015 15:58 34,8 C 32,2 C 42 % 0 lf 1015,5 hPa 0,0 l/m 2 min 0 min 743 W/m 13,6 km/h (3 Bft)
05.06.2015 16:00 34,8 C 32,2 C 44 % 0 lf 1015,5 hPa 0,0 l/m 2 min 0 min 742 W/m 24,4 km/h (4 Bft)
05.06.2015 16:02 34,9 C 33,3 C 43 % 0 lf 1015,4 hPa 0,0 l/m 2 min 0 min 739 W/m 19,0 km/h (3 Bft)
05.06.2015 16:04 34,9 C 33,9 C 41 % 0 lf 1015,5 hPa 0,0 l/m 2 min 0 min 735 W/m 19,0 km/h (3 Bft)
05.06.2015 16:06 35,0 C 33,9 C 40 % 0 lf 1015,5 hPa 0,0 l/m 2 min 0 min 728 W/m 19,0 km/h (3 Bft)
05.06.2015 16:08 35,1 C 33,3 C 42 % 0 lf 1015,4 hPa 0,0 l/m 2 min 0 min 718 W/m 16,4 km/h (3 Bft)
05.06.2015 16:10 35,1 C 34,4 C 41 % 0 lf 1015,4 hPa 0,0 l/m 2 min 0 min 710 W/m 24,4 km/h (4 Bft)
05.06.2015 16:12 35,1 C 35,6 C 41 % 0 lf 1015,4 hPa 0,0 l/m 2 min 0 min 714 W/m 35,4 km/h (5 Bft)
05.06.2015 16:14 35,0 C 35,6 C 41 % 0 lf 1015,4 hPa 0,0 l/m 2 min 0 min 711 W/m 21,7 km/h (4 Bft)
05.06.2015 16:16 34,9 C 35,0 C 40 % 0 lf 1015,3 hPa 0,0 l/m 2 min 0 min 714 W/m 27,2 km/h (4 Bft)
05.06.2015 16:18 34,9 C 33,9 C 42 % 0 lf 1015,4 hPa 0,0 l/m 2 min 0 min 714 W/m 27,2 km/h (4 Bft)
05.06.2015 16:20 34,9 C 33,3 C 42 % 0 lf 1015,3 hPa 0,0 l/m 2 min 0 min 713 W/m 16,4 km/h (3 Bft)
05.06.2015 16:22 34,9 C 32,8 C 41 % 0 lf 1015,3 hPa 0,0 l/m 2 min 0 min 709 W/m 10,9 km/h (2 Bft)
05.06.2015 16:24 35,0 C 32,8 C 42 % 0 lf 1015,3 hPa 0,0 l/m 2 min 0 min 701 W/m 21,7 km/h (4 Bft)
05.06.2015 16:25 35,0 C 32,8 C 42 % 0 lf 1015,2 hPa 0,0 l/m 1 min 0 min 702 W/m 24,4 km/h (4 Bft)
05.06.2015 16:30 35,1 C 32,2 C 42 % 0 lf 1015,1 hPa 0,0 l/m 2 min 0 min 689 W/m 29,9 km/h (5 Bft)
05.06.2015 16:32 35,2 C 32,2 C 41 % 0 lf 1015,1 hPa 0,0 l/m 2 min 0 min 686 W/m 21,7 km/h (4 Bft)
05.06.2015 16:34 35,1 C 32,2 C 40 % 0 lf 1015,1 hPa 0,0 l/m 2 min 0 min 676 W/m 21,7 km/h (4 Bft)
05.06.2015 16:35 35,1 C 32,2 C 41 % 0 lf 1015,0 hPa 0,0 l/m 1 min 0 min 675 W/m 24,4 km/h (4 Bft)
05.06.2015 16:40 35,1 C 32,2 C 42 % 0 lf 1015,0 hPa 0,0 l/m 2 min 0 min 666 W/m 29,9 km/h (5 Bft)
05.06.2015 16:42 35,1 C 32,2 C 41 % 0 lf 1015,0 hPa 0,0 l/m 2 min 0 min 667 W/m 19,0 km/h (3 Bft)
05.06.2015 16:46 35,1 C 32,2 C 41 % 0 lf 1014,8 hPa 0,0 l/m 2 min 0 min 653 W/m 24,4 km/h (4 Bft)
05.06.2015 16:48 35,1 C 32,2 C 40 % 0 lf 1014,7 hPa 0,0 l/m 2 min 0 min 651 W/m 19,0 km/h (3 Bft)
05.06.2015 16:50 35,1 C 32,2 C 41 % 0 lf 1014,7 hPa 0,0 l/m 2 min 0 min 647 W/m 27,2 km/h (4 Bft)
05.06.2015 16:52 35,1 C 32,2 C 41 % 0 lf 1014,6 hPa 0,0 l/m 2 min 0 min 640 W/m 24,4 km/h (4 Bft)
05.06.2015 16:54 35,1 C 31,7 C 41 % 0 lf 1014,5 hPa 0,0 l/m 2 min 0 min 634 W/m 16,4 km/h (3 Bft)
05.06.2015 16:56 35,1 C 33,3 C 41 % 0 lf 1014,6 hPa 0,0 l/m 2 min 0 min 626 W/m 21,7 km/h (4 Bft)
05.06.2015 16:58 35,1 C 33,3 C 40 % 0 lf 1014,5 hPa 0,0 l/m 2 min 0 min 620 W/m 16,4 km/h (3 Bft)
05.06.2015 17:00 35,1 C 32,8 C 40 % 0 lf 1014,6 hPa 0,0 l/m 2 min 0 min 617 W/m 16,4 km/h (3 Bft)
05.06.2015 17:02 35,1 C 32,8 C 40 % 0 lf 1014,5 hPa 0,0 l/m 2 min 0 min 615 W/m 21,7 km/h (4 Bft)
05.06.2015 17:04 35,0 C 32,2 C 40 % 0 lf 1014,3 hPa 0,0 l/m 2 min 0 min 607 W/m 27,2 km/h (4 Bft)
05.06.2015 17:06 34,9 C 32,2 C 40 % 0 lf 1014,3 hPa 0,0 l/m 2 min 0 min 600 W/m 19,0 km/h (3 Bft)
05.06.2015 17:08 34,9 C 31,7 C 40 % 0 lf 1014,3 hPa 0,0 l/m 2 min 0 min 603 W/m 16,4 km/h (3 Bft)
05.06.2015 17:10 34,8 C 31,7 C 41 % 0 lf 1014,3 hPa 0,0 l/m 2 min 0 min 600 W/m 21,7 km/h (4 Bft)
05.06.2015 17:12 34,8 C 31,7 C 41 % 0 lf 1014,2 hPa 0,0 l/m 2 min 0 min 594 W/m 19,0 km/h (3 Bft)
05.06.2015 17:14 34,7 C 31,7 C 40 % 0 lf 1014,2 hPa 0,0 l/m 2 min 0 min 586 W/m 27,2 km/h (4 Bft)
05.06.2015 17:16 34,7 C 31,7 C 41 % 0 lf 1014,1 hPa 0,0 l/m 2 min 0 min 580 W/m 24,4 km/h (4 Bft)
05.06.2015 17:18 34,7 C 31,1 C 40 % 0 lf 1014,1 hPa 0,0 l/m 2 min 0 min 577 W/m 21,7 km/h (4 Bft)
05.06.2015 17:20 34,6 C 31,1 C 40 % 0 lf 1014,1 hPa 0,0 l/m 2 min 0 min 571 W/m 24,4 km/h (4 Bft)
05.06.2015 17:22 34,6 C 31,1 C 40 % 0 lf 1014,1 hPa 0,0 l/m 2 min 0 min 565 W/m 29,9 km/h (5 Bft)
05.06.2015 17:24 34,6 C 31,1 C 41 % 0 lf 1014,1 hPa 0,0 l/m 2 min 0 min 561 W/m 21,7 km/h (4 Bft)
05.06.2015 17:26 34,5 C 31,1 C 40 % 0 lf 1014,0 hPa 0,0 l/m 2 min 0 min 555 W/m 21,7 km/h (4 Bft)
05.06.2015 17:28 34,5 C 31,1 C 41 % 0 lf 1014,0 hPa 0,0 l/m 2 min 0 min 550 W/m 24,4 km/h (4 Bft)
05.06.2015 17:30 34,5 C 31,1 C 41 % 0 lf 1014,1 hPa 0,0 l/m 2 min 0 min 544 W/m 27,2 km/h (4 Bft)
05.06.2015 17:32 34,4 C 31,1 C 41 % 0 lf 1014,2 hPa 0,0 l/m 2 min 0 min 538 W/m 24,4 km/h (4 Bft)
05.06.2015 17:34 34,4 C 30,6 C 41 % 0 lf 1014,1 hPa 0,0 l/m 2 min 0 min 534 W/m 21,7 km/h (4 Bft)
05.06.2015 17:36 34,3 C 30,6 C 41 % 0 lf 1014,1 hPa 0,0 l/m 2 min 0 min 526 W/m 27,2 km/h (4 Bft)
05.06.2015 17:38 34,2 C 30,6 C 41 % 0 lf 1014,0 hPa 0,0 l/m 2 min 0 min 520 W/m 21,7 km/h (4 Bft)
05.06.2015 17:40 34,2 C 30,6 C 41 % 0 lf 1014,0 hPa 0,0 l/m 2 min 0 min 517 W/m 21,7 km/h (4 Bft)
05.06.2015 17:42 34,2 C 30,6 C 41 % 0 lf 1014,0 hPa 0,0 l/m 2 min 0 min 508 W/m 13,6 km/h (3 Bft)
05.06.2015 17:44 34,2 C 30,0 C 42 % 0 lf 1013,9 hPa 0,0 l/m 2 min 0 min 503 W/m 19,0 km/h (3 Bft)
05.06.2015 17:46 34,2 C 30,0 C 41 % 0 lf 1014,0 hPa 0,0 l/m 2 min 0 min 498 W/m 19,0 km/h (3 Bft)
05.06.2015 17:48 34,1 C 30,0 C 41 % 0 lf 1014,2 hPa 0,0 l/m 2 min 0 min 498 W/m 19,0 km/h (3 Bft)
05.06.2015 17:50 34,1 C 30,6 C 42 % 0 lf 1014,1 hPa 0,0 l/m 2 min 0 min 493 W/m 16,4 km/h (3 Bft)
05.06.2015 17:52 34,1 C 30,0 C 42 % 0 lf 1014,1 hPa 0,0 l/m 2 min 0 min 488 W/m 21,7 km/h (4 Bft)
05.06.2015 17:54 34,1 C 30,0 C 42 % 0 lf 1014,0 hPa 0,0 l/m 2 min 0 min 483 W/m 13,6 km/h (3 Bft)
05.06.2015 17:56 34,1 C 30,0 C 42 % 0 lf 1014,1 hPa 0,0 l/m 2 min 0 min 477 W/m 19,0 km/h (3 Bft)
05.06.2015 17:58 34,0 C 30,0 C 42 % 0 lf 1014,0 hPa 0,0 l/m 2 min 0 min 469 W/m 19,0 km/h (3 Bft)
05.06.2015 18:00 33,9 C 30,0 C 42 % 0 lf 1014,0 hPa 0,0 l/m 2 min 0 min 463 W/m 10,9 km/h (2 Bft)
05.06.2015 18:02 33,9 C 30,0 C 42 % 0 lf 1014,1 hPa 0,0 l/m 2 min 0 min 457 W/m 24,4 km/h (4 Bft)
05.06.2015 18:05 33,9 C 29,4 C 42 % 0 lf 1014,0 hPa 0,0 l/m 2 min 0 min 452 W/m 19,0 km/h (3 Bft)
05.06.2015 18:06 33,9 C 29,4 C 42 % 0 lf 1014,0 hPa 0,0 l/m 1 min 0 min 448 W/m 19,0 km/h (3 Bft)
05.06.2015 18:08 33,8 C 29,4 C 42 % 0 lf 1014,1 hPa 0,0 l/m 2 min 0 min 444 W/m 10,9 km/h (2 Bft)
05.06.2015 18:10 33,8 C 29,4 C 43 % 0 lf 1014,1 hPa 0,0 l/m 2 min 0 min 441 W/m 21,7 km/h (4 Bft)
05.06.2015 18:12 33,7 C 29,4 C 42 % 0 lf 1013,9 hPa 0,0 l/m 2 min 0 min 435 W/m 21,7 km/h (4 Bft)
05.06.2015 18:14 33,7 C 29,4 C 43 % 0 lf 1013,9 hPa 0,0 l/m 2 min 0 min 428 W/m 16,4 km/h (3 Bft)
05.06.2015 18:16 33,7 C 29,4 C 43 % 0 lf 1013,8 hPa 0,0 l/m 2 min 0 min 425 W/m 5,5 km/h (1 Bft)
05.06.2015 18:18 33,7 C 28,9 C 43 % 0 lf 1013,7 hPa 0,0 l/m 2 min 0 min 420 W/m 13,6 km/h (3 Bft)
05.06.2015 18:20 33,7 C 28,9 C 43 % 0 lf 1013,7 hPa 0,0 l/m 2 min 0 min 417 W/m 10,9 km/h (2 Bft)
05.06.2015 18:22 33,6 C 28,9 C 43 % 0 lf 1013,7 hPa 0,0 l/m 2 min 0 min 414 W/m 19,0 km/h (3 Bft)
05.06.2015 18:24 33,6 C 28,9 C 43 % 0 lf 1013,6 hPa 0,0 l/m 2 min 0 min 410 W/m 19,0 km/h (3 Bft)
05.06.2015 18:26 33,6 C 28,9 C 43 % 0 lf 1013,7 hPa 0,0 l/m 2 min 0 min 406 W/m 19,0 km/h (3 Bft)
05.06.2015 18:28 33,5 C 29,4 C 43 % 0 lf 1013,7 hPa 0,0 l/m 2 min 0 min 345 W/m 19,0 km/h (3 Bft)
05.06.2015 18:30 33,4 C 29,4 C 44 % 0 lf 1013,6 hPa 0,0 l/m 2 min 0 min 297 W/m 16,4 km/h (3 Bft)
05.06.2015 18:32 33,4 C 28,9 C 44 % 0 lf 1013,6 hPa 0,0 l/m 2 min 0 min 278 W/m 13,6 km/h (3 Bft)
05.06.2015 18:34 33,4 C 28,9 C 44 % 0 lf 1013,7 hPa 0,0 l/m 0 min 0 min 205 W/m 16,4 km/h (3 Bft)
05.06.2015 18:36 33,4 C 28,9 C 43 % 0 lf 1013,7 hPa 0,0 l/m 0 min 0 min 182 W/m 19,0 km/h (3 Bft)
05.06.2015 18:38 33,3 C 28,3 C 43 % 0 lf 1013,7 hPa 0,0 l/m 0 min 0 min 147 W/m 2,7 km/h (1 Bft)
05.06.2015 18:40 33,3 C 28,3 C 44 % 0 lf 1013,7 hPa 0,0 l/m 0 min 0 min 153 W/m 8,2 km/h (2 Bft)
05.06.2015 18:42 33,3 C 28,3 C 44 % 0 lf 1013,7 hPa 0,0 l/m 0 min 0 min 151 W/m 16,4 km/h (3 Bft)
05.06.2015 18:44 33,2 C 28,3 C 44 % 0 lf 1013,7 hPa 0,0 l/m 0 min 0 min 143 W/m 13,6 km/h (3 Bft)
05.06.2015 18:46 33,1 C 28,3 C 44 % 0 lf 1013,6 hPa 0,0 l/m 0 min 0 min 138 W/m 10,9 km/h (2 Bft)
05.06.2015 18:48 33,1 C 28,3 C 44 % 0 lf 1013,6 hPa 0,0 l/m 0 min 0 min 135 W/m 16,4 km/h (3 Bft)
05.06.2015 18:50 33,0 C 28,3 C 44 % 0 lf 1013,5 hPa 0,0 l/m 0 min 0 min 138 W/m 13,6 km/h (3 Bft)
05.06.2015 18:52 32,9 C 28,3 C 45 % 0 lf 1013,5 hPa 0,0 l/m 0 min 0 min 146 W/m 10,9 km/h (2 Bft)
05.06.2015 18:54 32,9 C 27,8 C 46 % 0 lf 1013,4 hPa 0,0 l/m 0 min 0 min 152 W/m 8,2 km/h (2 Bft)
05.06.2015 18:56 32,9 C 27,8 C 46 % 0 lf 1013,5 hPa 0,0 l/m 0 min 0 min 152 W/m 10,9 km/h (2 Bft)
05.06.2015 18:58 32,8 C 27,8 C 46 % 0 lf 1013,4 hPa 0,0 l/m 0 min 0 min 157 W/m 10,9 km/h (2 Bft)
05.06.2015 19:00 32,8 C 27,8 C 47 % 0 lf 1013,3 hPa 0,0 l/m 0 min 0 min 151 W/m 10,9 km/h (2 Bft)
05.06.2015 19:02 32,8 C 27,8 C 47 % 0 lf 1013,3 hPa 0,0 l/m 0 min 0 min 136 W/m 10,9 km/h (2 Bft)
05.06.2015 19:04 32,7 C 27,8 C 46 % 0 lf 1013,2 hPa 0,0 l/m 0 min 0 min 128 W/m 8,2 km/h (2 Bft)
05.06.2015 19:06 32,7 C 27,8 C 47 % 0 lf 1013,3 hPa 0,0 l/m 0 min 0 min 116 W/m 8,2 km/h (2 Bft)
05.06.2015 19:08 32,7 C 27,2 C 46 % 0 lf 1013,3 hPa 0,0 l/m 0 min 0 min 106 W/m 8,2 km/h (2 Bft)
05.06.2015 19:10 32,6 C 27,2 C 46 % 0 lf 1013,2 hPa 0,0 l/m 0 min 0 min 97 W/m 5,5 km/h (1 Bft)
05.06.2015 19:12 32,6 C 27,2 C 47 % 0 lf 1013,2 hPa 0,0 l/m 0 min 0 min 93 W/m 5,5 km/h (1 Bft)
05.06.2015 19:14 32,5 C 27,2 C 47 % 0 lf 1013,2 hPa 0,0 l/m 0 min 0 min 97 W/m 8,2 km/h (2 Bft)
05.06.2015 19:16 32,4 C 27,2 C 46 % 0 lf 1013,2 hPa 0,0 l/m 0 min 0 min 96 W/m 8,2 km/h (2 Bft)
05.06.2015 19:18 32,4 C 27,2 C 46 % 0 lf 1013,2 hPa 0,0 l/m 0 min 0 min 97 W/m 5,5 km/h (1 Bft)
05.06.2015 19:20 32,4 C 26,7 C 47 % 0 lf 1013,2 hPa 0,0 l/m 0 min 0 min 95 W/m 5,5 km/h (1 Bft)
05.06.2015 19:22 32,3 C 26,7 C 48 % 0 lf 1013,1 hPa 0,0 l/m 0 min 0 min 91 W/m 5,5 km/h (1 Bft)
05.06.2015 19:24 32,3 C 26,7 C 48 % 0 lf 1013,2 hPa 0,0 l/m 0 min 0 min 85 W/m 5,5 km/h (1 Bft)
05.06.2015 19:26 32,3 C 26,1 C 49 % 0 lf 1013,3 hPa 0,0 l/m 0 min 0 min 79 W/m 5,5 km/h (1 Bft)
05.06.2015 19:28 32,2 C 26,1 C 50 % 0 lf 1013,3 hPa 0,0 l/m 0 min 0 min 77 W/m 8,2 km/h (2 Bft)
05.06.2015 19:30 32,2 C 26,1 C 49 % 0 lf 1013,3 hPa 0,0 l/m 0 min 0 min 75 W/m 2,7 km/h (1 Bft)
05.06.2015 19:32 32,2 C 26,1 C 50 % 0 lf 1013,2 hPa 0,0 l/m 0 min 0 min 69 W/m 2,7 km/h (1 Bft)
05.06.2015 19:34 32,1 C 26,1 C 49 % 0 lf 1013,2 hPa 0,0 l/m 0 min 0 min 64 W/m 2,7 km/h (1 Bft)
05.06.2015 19:36 32,1 C 25,6 C 51 % 0 lf 1013,2 hPa 0,0 l/m 0 min 0 min 62 W/m 2,7 km/h (1 Bft)
05.06.2015 19:38 32,0 C 25,6 C 52 % 0 lf 1013,2 hPa 0,0 l/m 0 min 0 min 59 W/m 2,7 km/h (1 Bft)
05.06.2015 19:40 31,9 C 25,6 C 52 % 0 lf 1013,2 hPa 0,0 l/m 0 min 0 min 58 W/m 2,7 km/h (1 Bft)
05.06.2015 19:42 31,8 C 25,6 C 52 % 0 lf 1013,2 hPa 0,0 l/m 0 min 0 min 56 W/m 2,7 km/h (1 Bft)
05.06.2015 19:45 31,7 C 25,6 C 52 % 0 lf 1013,2 hPa 0,0 l/m 0 min 0 min 58 W/m 2,7 km/h (1 Bft)
05.06.2015 19:50 31,5 C 25,0 C 54 % 0 lf 1013,2 hPa 0,0 l/m 0 min 0 min 63 W/m 2,7 km/h (1 Bft)
05.06.2015 20:16 30,6 C 24,4 C 56 % 0 lf 1013,1 hPa 0,0 l/m 0 min 0 min 33 W/m 5,5 km/h (1 Bft)
05.06.2015 20:18 30,4 C 24,4 C 57 % 0 lf 1013,1 hPa 0,0 l/m 0 min 0 min 33 W/m 2,7 km/h (1 Bft)
05.06.2015 20:20 30,4 C 24,4 C 57 % 0 lf 1013,0 hPa 0,0 l/m 0 min 0 min 33 W/m 2,7 km/h (1 Bft)
05.06.2015 20:22 30,3 C 24,4 C 57 % 0 lf 1013,1 hPa 0,0 l/m 0 min 0 min 32 W/m 5,5 km/h (1 Bft)
05.06.2015 20:24 30,2 C 24,4 C 57 % 0 lf 1013,1 hPa 0,0 l/m 0 min 0 min 32 W/m 5,5 km/h (1 Bft)
05.06.2015 20:25 30,1 C 24,4 C 58 % 0 lf 1013,1 hPa 0,0 l/m 0 min 0 min 31 W/m 4,2 km/h (1 Bft)
05.06.2015 20:30 29,9 C 24,4 C 57 % 0 lf 1013,1 hPa 0,0 l/m 0 min 0 min 28 W/m 2,1 km/h (1 Bft)
05.06.2015 20:32 29,8 C 24,4 C 58 % 0 lf 1013,2 hPa 0,0 l/m 0 min 0 min 24 W/m 2,1 km/h (1 Bft)
05.06.2015 20:34 29,8 C 23,9 C 58 % 0 lf 1013,2 hPa 0,0 l/m 0 min 0 min 23 W/m 4,2 km/h (1 Bft)
05.06.2015 20:36 29,6 C 23,9 C 58 % 0 lf 1013,2 hPa 0,0 l/m 0 min 0 min 21 W/m 2,1 km/h (1 Bft)
05.06.2015 20:38 29,6 C 23,9 C 57 % 0 lf 1013,1 hPa 0,0 l/m 0 min 0 min 21 W/m 2,1 km/h (1 Bft)
05.06.2015 20:40 29,4 C 23,9 C 58 % 0 lf 1013,2 hPa 0,0 l/m 0 min 0 min 21 W/m 2,1 km/h (1 Bft)
05.06.2015 20:42 29,4 C 23,9 C 58 % 0 lf 1013,2 hPa 0,0 l/m 0 min 0 min 19 W/m 2,1 km/h (1 Bft)
05.06.2015 20:44 29,3 C 23,3 C 59 % 0 lf 1013,4 hPa 0,0 l/m 0 min 0 min 19 W/m 4,2 km/h (1 Bft)
05.06.2015 20:46 29,2 C 23,3 C 60 % 0 lf 1013,5 hPa 0,0 l/m 0 min 0 min 18 W/m 4,2 km/h (1 Bft)
05.06.2015 20:48 29,0 C 23,3 C 60 % 0 lf 1013,5 hPa 0,0 l/m 0 min 0 min 17 W/m 6,3 km/h (2 Bft)
05.06.2015 20:50 28,9 C 23,3 C 59 % 0 lf 1013,4 hPa 0,0 l/m 0 min 0 min 16 W/m 4,2 km/h (1 Bft)
05.06.2015 20:52 28,8 C 23,3 C 59 % 0 lf 1013,4 hPa 0,0 l/m 0 min 0 min 16 W/m 6,3 km/h (2 Bft)
05.06.2015 20:54 28,7 C 23,3 C 59 % 0 lf 1013,5 hPa 0,0 l/m 0 min 0 min 14 W/m 4,2 km/h (1 Bft)
05.06.2015 20:56 28,6 C 23,3 C 60 % 0 lf 1013,5 hPa 0,0 l/m 0 min 0 min 14 W/m 2,1 km/h (1 Bft)
05.06.2015 20:58 28,5 C 22,8 C 60 % 0 lf 1013,5 hPa 0,0 l/m 0 min 0 min 14 W/m 4,2 km/h (1 Bft)
05.06.2015 21:00 28,4 C 22,8 C 61 % 0 lf 1013,6 hPa 0,0 l/m 0 min 0 min 12 W/m 6,3 km/h (2 Bft)
05.06.2015 21:02 28,3 C 22,8 C 61 % 0 lf 1013,9 hPa 0,0 l/m 0 min 0 min 13 W/m 10,5 km/h (2 Bft)
05.06.2015 21:04 28,1 C 23,3 C 60 % 0 lf 1014,2 hPa 0,0 l/m 0 min 0 min 14 W/m 43,9 km/h (6 Bft)
05.06.2015 21:06 27,8 C 23,9 C 60 % 0 lf 1014,4 hPa 0,0 l/m 0 min 0 min 13 W/m 43,9 km/h (6 Bft)
05.06.2015 21:08 27,7 C 24,4 C 60 % 0 lf 1014,3 hPa 0,0 l/m 0 min 0 min 11 W/m 48,1 km/h (6 Bft)
05.06.2015 21:10 27,5 C 24,4 C 60 % 0 lf 1014,4 hPa 0,0 l/m 0 min 0 min 11 W/m 27,2 km/h (4 Bft)
05.06.2015 21:12 27,4 C 24,4 C 61 % 0 lf 1014,5 hPa 0,0 l/m 0 min 0 min 9 W/m 20,9 km/h (4 Bft)
05.06.2015 21:14 27,3 C 23,9 C 61 % 0 lf 1014,6 hPa 0,0 l/m 0 min 0 min 9 W/m 33,5 km/h (5 Bft)
05.06.2015 21:16 27,2 C 23,9 C 61 % 0 lf 1014,6 hPa 0,0 l/m 0 min 0 min 7 W/m 27,2 km/h (4 Bft)
05.06.2015 21:18 27,1 C 23,9 C 61 % 0 lf 1014,6 hPa 0,0 l/m 0 min 0 min 7 W/m 29,3 km/h (5 Bft)
05.06.2015 21:22 26,9 C 23,9 C 62 % 0 lf 1014,7 hPa 0,0 l/m 0 min 0 min 5 W/m 12,6 km/h (3 Bft)
05.06.2015 21:26 26,7 C 23,3 C 62 % 0 lf 1014,8 hPa 0,0 l/m 0 min 0 min 5 W/m 16,7 km/h (3 Bft)
05.06.2015 21:28 26,6 C 23,3 C 62 % 0 lf 1014,8 hPa 0,0 l/m 0 min 0 min 5 W/m 35,6 km/h (5 Bft)
05.06.2015 21:30 26,4 C 23,3 C 62 % 0 lf 1014,8 hPa 0,0 l/m 0 min 0 min 5 W/m 27,2 km/h (4 Bft)
05.06.2015 21:32 26,3 C 23,3 C 61 % 0 lf 1014,8 hPa 0,0 l/m 0 min 0 min 5 W/m 35,6 km/h (5 Bft)
05.06.2015 21:34 26,2 C 23,3 C 61 % 0 lf 1014,7 hPa 0,0 l/m 0 min 0 min 1 W/m 29,3 km/h (5 Bft)
05.06.2015 21:36 26,1 C 22,8 C 61 % 0 lf 1014,9 hPa 0,0 l/m 0 min 0 min 0 W/m 27,2 km/h (4 Bft)
05.06.2015 21:38 25,9 C 22,8 C 61 % 0 lf 1014,9 hPa 0,0 l/m 0 min 0 min 0 W/m 20,9 km/h (4 Bft)
05.06.2015 21:40 25,8 C 22,8 C 61 % 0 lf 1015,2 hPa 0,0 l/m 0 min 0 min 0 W/m 16,7 km/h (3 Bft)
05.06.2015 21:42 25,7 C 22,8 C 61 % 0 lf 1015,2 hPa 0,0 l/m 0 min 0 min 0 W/m 23,0 km/h (4 Bft)
05.06.2015 21:44 25,6 C 22,8 C 62 % 0 lf 1015,3 hPa 0,0 l/m 0 min 0 min 0 W/m 20,9 km/h (4 Bft)
05.06.2015 21:46 25,4 C 22,8 C 61 % 0 lf 1015,3 hPa 0,0 l/m 0 min 0 min 0 W/m 29,3 km/h (5 Bft)
05.06.2015 21:48 25,3 C 22,2 C 62 % 0 lf 1015,4 hPa 0,0 l/m 0 min 0 min 0 W/m 23,0 km/h (4 Bft)
05.06.2015 21:50 25,2 C 22,2 C 62 % 0 lf 1015,4 hPa 0,0 l/m 0 min 0 min 0 W/m 25,1 km/h (4 Bft)
05.06.2015 21:54 25,1 C 22,2 C 62 % 0 lf 1015,5 hPa 0,0 l/m 0 min 0 min 0 W/m 27,2 km/h (4 Bft)
05.06.2015 21:56 25,0 C 22,2 C 62 % 0 lf 1015,5 hPa 0,0 l/m 0 min 0 min 0 W/m 14,6 km/h (3 Bft)
05.06.2015 21:58 24,9 C 22,2 C 62 % 0 lf 1015,6 hPa 0,0 l/m 0 min 0 min 0 W/m 14,6 km/h (3 Bft)
05.06.2015 22:00 24,9 C 21,7 C 63 % 0 lf 1015,7 hPa 0,0 l/m 0 min 0 min 0 W/m 12,6 km/h (3 Bft)
05.06.2015 22:02 24,8 C 21,7 C 63 % 0 lf 1015,7 hPa 0,0 l/m 0 min 0 min 0 W/m 10,5 km/h (2 Bft)
05.06.2015 22:04 24,8 C 21,7 C 63 % 0 lf 1015,8 hPa 0,0 l/m 0 min 0 min 0 W/m 12,6 km/h (3 Bft)
05.06.2015 22:06 24,7 C 21,7 C 63 % 0 lf 1015,9 hPa 0,0 l/m 0 min 0 min 0 W/m 12,6 km/h (3 Bft)
05.06.2015 22:08 24,7 C 21,7 C 63 % 0 lf 1015,9 hPa 0,0 l/m 0 min 0 min 0 W/m 12,6 km/h (3 Bft)
05.06.2015 22:10 24,6 C 21,7 C 63 % 0 lf 1015,9 hPa 0,0 l/m 0 min 0 min 0 W/m 8,4 km/h (2 Bft)
05.06.2015 22:12 24,6 C 21,1 C 64 % 0 lf 1016,0 hPa 0,0 l/m 0 min 0 min 0 W/m 10,5 km/h (2 Bft)
05.06.2015 22:14 24,5 C 21,1 C 64 % 0 lf 1016,0 hPa 0,0 l/m 0 min 0 min 0 W/m 12,6 km/h (3 Bft)
05.06.2015 22:18 24,4 C 21,1 C 64 % 0 lf 1016,0 hPa 0,0 l/m 0 min 0 min 0 W/m 10,5 km/h (2 Bft)
05.06.2015 22:20 24,3 C 21,1 C 64 % 0 lf 1016,0 hPa 0,0 l/m 0 min 0 min 0 W/m 10,5 km/h (2 Bft)
05.06.2015 22:22 24,3 C 21,1 C 64 % 0 lf 1015,9 hPa 0,0 l/m 0 min 0 min 0 W/m 8,4 km/h (2 Bft)
05.06.2015 22:26 24,2 C 21,1 C 64 % 0 lf 1015,7 hPa 0,0 l/m 0 min 0 min 0 W/m 8,4 km/h (2 Bft)
05.06.2015 22:28 24,1 C 20,6 C 64 % 0 lf 1015,7 hPa 0,0 l/m 0 min 0 min 0 W/m 6,3 km/h (2 Bft)
05.06.2015 22:30 24,1 C 20,6 C 64 % 0 lf 1015,7 hPa 0,0 l/m 0 min 0 min 0 W/m 12,6 km/h (3 Bft)
05.06.2015 22:32 24,1 C 20,6 C 65 % 0 lf 1015,8 hPa 0,0 l/m 0 min 0 min 0 W/m 8,4 km/h (2 Bft)
05.06.2015 22:34 24,0 C 20,6 C 64 % 0 lf 1015,7 hPa 0,0 l/m 0 min 0 min 0 W/m 10,5 km/h (2 Bft)
05.06.2015 22:36 23,9 C 20,6 C 65 % 0 lf 1015,6 hPa 0,0 l/m 0 min 0 min 0 W/m 12,6 km/h (3 Bft)
05.06.2015 22:38 23,9 C 20,6 C 65 % 0 lf 1015,6 hPa 0,0 l/m 0 min 0 min 0 W/m 12,6 km/h (3 Bft)
05.06.2015 22:40 23,9 C 20,6 C 65 % 0 lf 1015,5 hPa 0,0 l/m 0 min 0 min 0 W/m 10,5 km/h (2 Bft)
05.06.2015 22:42 23,8 C 20,6 C 65 % 0 lf 1015,5 hPa 0,0 l/m 0 min 0 min 0 W/m 8,4 km/h (2 Bft)
05.06.2015 22:46 23,7 C 20,6 C 66 % 0 lf 1015,7 hPa 0,0 l/m 0 min 0 min 0 W/m 10,5 km/h (2 Bft)
05.06.2015 22:48 23,6 C 20,0 C 66 % 0 lf 1015,8 hPa 0,0 l/m 0 min 0 min 0 W/m 10,5 km/h (2 Bft)
05.06.2015 22:50 23,6 C 20,0 C 66 % 0 lf 1015,8 hPa 0,0 l/m 0 min 0 min 0 W/m 10,5 km/h (2 Bft)
05.06.2015 22:54 23,4 C 20,0 C 66 % 0 lf 1016,0 hPa 0,0 l/m 0 min 0 min 0 W/m 8,4 km/h (2 Bft)
05.06.2015 22:58 23,3 C 20,0 C 67 % 0 lf 1016,2 hPa 0,0 l/m 0 min 0 min 0 W/m 10,5 km/h (2 Bft)
05.06.2015 23:00 23,2 C 20,0 C 67 % 0 lf 1016,2 hPa 0,0 l/m 0 min 0 min 0 W/m 10,5 km/h (2 Bft)
05.06.2015 23:02 23,2 C 20,0 C 67 % 0 lf 1016,2 hPa 0,0 l/m 0 min 0 min 0 W/m 16,7 km/h (3 Bft)
05.06.2015 23:06 23,1 C 20,6 C 67 % 0 lf 1016,1 hPa 0,0 l/m 0 min 0 min 0 W/m 10,5 km/h (2 Bft)
05.06.2015 23:08 23,0 C 20,0 C 68 % 0 lf 1016,2 hPa 0,0 l/m 0 min 0 min 0 W/m 10,5 km/h (2 Bft)
05.06.2015 23:10 22,9 C 20,0 C 68 % 0 lf 1016,2 hPa 0,0 l/m 0 min 0 min 0 W/m 12,6 km/h (3 Bft)
05.06.2015 23:12 22,9 C 20,0 C 68 % 0 lf 1016,2 hPa 0,0 l/m 0 min 0 min 0 W/m 10,5 km/h (2 Bft)
05.06.2015 23:14 22,9 C 20,6 C 68 % 0 lf 1016,2 hPa 0,0 l/m 0 min 0 min 0 W/m 10,5 km/h (2 Bft)
05.06.2015 23:16 22,8 C 20,6 C 68 % 0 lf 1016,2 hPa 0,0 l/m 0 min 0 min 0 W/m 12,6 km/h (3 Bft)
05.06.2015 23:20 22,8 C 20,6 C 68 % 0 lf 1016,2 hPa 0,0 l/m 0 min 0 min 0 W/m 6,3 km/h (2 Bft)
05.06.2015 23:22 22,7 C 20,6 C 68 % 0 lf 1016,4 hPa 0,0 l/m 0 min 0 min 0 W/m 6,3 km/h (2 Bft)
05.06.2015 23:26 22,7 C 20,6 C 69 % 0 lf 1016,6 hPa 0,0 l/m 0 min 0 min 0 W/m 10,5 km/h (2 Bft)
05.06.2015 23:28 22,7 C 20,6 C 69 % 0 lf 1016,6 hPa 0,0 l/m 0 min 0 min 0 W/m 16,7 km/h (3 Bft)
05.06.2015 23:30 22,6 C 20,6 C 69 % 0 lf 1016,6 hPa 0,0 l/m 0 min 0 min 0 W/m 6,3 km/h (2 Bft)
05.06.2015 23:32 22,6 C 20,6 C 69 % 0 lf 1016,5 hPa 0,0 l/m 0 min 0 min 0 W/m 6,3 km/h (2 Bft)
05.06.2015 23:34 22,6 C 20,6 C 69 % 0 lf 1016,5 hPa 0,0 l/m 0 min 0 min 0 W/m 8,4 km/h (2 Bft)
05.06.2015 23:36 22,6 C 20,6 C 69 % 0 lf 1016,5 hPa 0,0 l/m 0 min 0 min 0 W/m 8,4 km/h (2 Bft)
05.06.2015 23:38 22,6 C 20,6 C 69 % 0 lf 1016,5 hPa 0,0 l/m 0 min 0 min 0 W/m 10,5 km/h (2 Bft)
05.06.2015 23:40 22,6 C 20,6 C 70 % 0 lf 1016,6 hPa 0,0 l/m 0 min 0 min 0 W/m 10,5 km/h (2 Bft)
05.06.2015 23:42 22,5 C 20,6 C 70 % 0 lf 1016,8 hPa 0,0 l/m 0 min 0 min 0 W/m 10,5 km/h (2 Bft)
05.06.2015 23:44 22,5 C 20,6 C 70 % 0 lf 1017,1 hPa 0,0 l/m 0 min 0 min 0 W/m 12,6 km/h (3 Bft)
05.06.2015 23:46 22,5 C 20,6 C 70 % 0 lf 1017,4 hPa 0,0 l/m 0 min 0 min 0 W/m 14,6 km/h (3 Bft)
05.06.2015 23:50 22,4 C 20,6 C 70 % 0 lf 1017,7 hPa 0,0 l/m 0 min 0 min 0 W/m 14,6 km/h (3 Bft)
05.06.2015 23:52 22,4 C 20,6 C 71 % 0 lf 1017,6 hPa 0,0 l/m 0 min 0 min 0 W/m 10,5 km/h (2 Bft)
05.06.2015 23:54 22,4 C 20,6 C 71 % 0 lf 1017,5 hPa 0,0 l/m 0 min 0 min 0 W/m 12,6 km/h (3 Bft)
05.06.2015 23:58 22,3 C 20,6 C 71 % 0 lf 1017,3 hPa 0,0 l/m 0 min 0 min 0 W/m 8,4 km/h (2 Bft)
_ Min-Zeit 20:30 01:30 16:06 00:00 20:20 - - - - 20:30
Minimum _ 10,4 C 11,7 C 40 % 0 lf 1013,0 hPa - - - - 2,1 km/h (1 Bft)
_ Max-Zeit 16:32 16:12 02:44 00:00 00:00 00:00 05:44 00:00 13:22 21:08
Maximum _ 35,2 C 35,6 C 81 % 0 lf 1021,5 hPa 0,0 l/m 2 min 0 min 904 W/m 48,1 km/h
W-NW (6 Bft)
Durchschnitt _ 24,3 C 22,1 C 62 % 0 lf 1017,5 hPa #0,0 l/m #12:35 h #0 min. 486 W/m 15,7 km/h (3 Bft)
© 2015 W. Hausmann